| time (UTC) | temp F | wind direction | speed knots | gust knots | rain 1hr in | rain 24hr in | rain mn in | humidity % | barometer mb |
| 20260509095455 | 66 | 112 | 6.1 | 0.0 | 0.00 | 0.00 | 0.00 | 43 | 1065.7 |
| 20260509095326 | 66 | 67 | 4.3 | 0.0 | 0.00 | 0.00 | 0.00 | 43 | 1065.6 |
| 20260509095213 | 66 | 135 | 5.2 | 0.0 | 0.00 | 0.00 | 0.00 | 42 | 1065.6 |
| 20260509095052 | 67 | 135 | 8.7 | 0.0 | 0.00 | 0.00 | 0.00 | 42 | 1065.7 |
| 20260509094930 | 67 | 90 | 6.1 | 0.0 | 0.00 | 0.00 | 0.00 | 42 | 1065.7 |
| 20260509094801 | 67 | 112 | 5.2 | 0.0 | 0.00 | 0.00 | 0.00 | 42 | 1065.7 |
| 20260509094648 | 67 | 112 | 6.1 | 0.0 | 0.00 | 0.00 | 0.00 | 43 | 1065.7 |
| 20260509094529 | 67 | 135 | 4.3 | 0.0 | 0.00 | 0.00 | 0.00 | 43 | 1065.7 |
| 20260509094422 | 67 | 112 | 3.5 | 0.0 | 0.00 | 0.00 | 0.00 | 42 | 1065.7 |
| 20260509094300 | 67 | 112 | 0.0 | 0.0 | 0.00 | 0.00 | 0.00 | 43 | 1065.7 |
| 20260509094132 | 67 | 90 | 3.5 | 0.0 | 0.00 | 0.00 | 0.00 | 42 | 1065.8 |
| 20260509094018 | 67 | 90 | 3.5 | 0.0 | 0.00 | 0.00 | 0.00 | 41 | 1065.8 |
| 20260509093859 | 68 | 90 | 5.2 | 0.0 | 0.00 | 0.00 | 0.00 | 41 | 1065.8 |
| 20260509093743 | 68 | 90 | 3.5 | 0.0 | 0.00 | 0.00 | 0.00 | 41 | 1065.8 |
| 20260509093631 | 68 | 112 | 4.3 | 0.0 | 0.00 | 0.00 | 0.00 | 41 | 1065.8 |
| 20260509093517 | 68 | 112 | 5.2 | 0.0 | 0.00 | 0.00 | 0.00 | 42 | 1065.9 |
| 20260509093357 | 67 | 112 | 5.2 | 0.0 | 0.00 | 0.00 | 0.00 | 43 | 1065.9 |
| 20260509093244 | 66 | 112 | 5.2 | 0.0 | 0.00 | 0.00 | 0.00 | 43 | 1065.9 |
| 20260509093130 | 66 | 135 | 5.2 | 0.0 | 0.00 | 0.00 | 0.00 | 43 | 1065.9 |
| 20260509093010 | 65 | 135 | 2.6 | 0.0 | 0.00 | 0.00 | 0.00 | 44 | 1065.9 |
| 20260509092856 | 65 | 112 | 4.3 | 0.0 | 0.00 | 0.00 | 0.00 | 45 | 1065.9 |
| 20260509092737 | 65 | 135 | 1.7 | 0.0 | 0.00 | 0.00 | 0.00 | 45 | 1065.9 |
| 20260509092630 | 65 | 180 | 4.3 | 0.0 | 0.00 | 0.00 | 0.00 | 44 | 1065.9 |
| 20260509092518 | 66 | 157 | 5.2 | 0.0 | 0.00 | 0.00 | 0.00 | 44 | 1065.9 |
| 20260509092412 | 66 | 112 | 6.1 | 0.0 | 0.00 | 0.00 | 0.00 | 43 | 1065.9 |
| 20260509092259 | 66 | 135 | 7.8 | 0.0 | 0.00 | 0.00 | 0.00 | 44 | 1065.9 |
| 20260509092138 | 66 | 157 | 7.0 | 0.0 | 0.00 | 0.00 | 0.00 | 44 | 1065.8 |
| 20260509092017 | 66 | 135 | 4.3 | 0.0 | 0.00 | 0.00 | 0.00 | 44 | 1065.9 |
| 20260509091855 | 65 | 180 | 6.1 | 0.0 | 0.00 | 0.00 | 0.00 | 45 | 1065.9 |
| 20260509091734 | 65 | 135 | 1.7 | 0.0 | 0.00 | 0.00 | 0.00 | 44 | 1065.9 |
| 20260509091613 | 65 | 135 | 4.3 | 0.0 | 0.00 | 0.00 | 0.00 | 42 | 1065.8 |
| 20260509091500 | 66 | 157 | 5.2 | 0.0 | 0.00 | 0.00 | 0.00 | 41 | 1065.9 |
| 20260509091332 | 67 | 180 | 5.2 | 0.0 | 0.00 | 0.00 | 0.00 | 42 | 1065.9 |
| 20260509091210 | 67 | 157 | 5.2 | 0.0 | 0.00 | 0.00 | 0.00 | 42 | 1065.9 |
| 20260509091058 | 67 | 135 | 0.0 | 0.0 | 0.00 | 0.00 | 0.00 | 42 | 1065.9 |
| 20260509090943 | 67 | 135 | 4.3 | 0.0 | 0.00 | 0.00 | 0.00 | 42 | 1065.9 |
| 20260509090831 | 67 | 135 | 7.0 | 0.0 | 0.00 | 0.00 | 0.00 | 42 | 1065.9 |
| 20260509090718 | 67 | 135 | 6.1 | 0.0 | 0.00 | 0.00 | 0.00 | 42 | 1065.9 |
| 20260509090606 | 67 | 157 | 7.8 | 0.0 | 0.00 | 0.00 | 0.00 | 42 | 1065.8 |
| 20260509090459 | 67 | 112 | 0.9 | 0.0 | 0.00 | 0.00 | 0.00 | 43 | 1065.9 |
| 20260509090338 | 66 | 135 | 7.0 | 0.0 | 0.00 | 0.00 | 0.00 | 44 | 1065.8 |
| 20260509090216 | 65 | 90 | 1.7 | 0.0 | 0.00 | 0.00 | 0.00 | 44 | 1065.9 |
| 20260509090055 | 65 | 135 | 3.5 | 0.0 | 0.00 | 0.00 | 0.00 | 44 | 1065.8 |
| 20260509085934 | 65 | 135 | 3.5 | 0.0 | 0.00 | 0.00 | 0.00 | 42 | 1065.8 |
| 20260509085821 | 66 | 157 | 5.2 | 0.0 | 0.00 | 0.00 | 0.00 | 41 | 1065.8 |
| 20260509085658 | 66 | 157 | 7.8 | 0.0 | 0.00 | 0.00 | 0.00 | 40 | 1065.8 |
| 20260509085530 | 67 | 135 | 8.7 | 0.0 | 0.00 | 0.00 | 0.00 | 39 | 1065.8 |
| 20260509085410 | 67 | 135 | 11.3 | 0.0 | 0.00 | 0.00 | 0.00 | 40 | 1065.8 |
| 20260509085306 | 67 | 112 | 6.1 | 0.0 | 0.00 | 0.00 | 0.00 | 42 | 1065.7 |
| 20260509085143 | 65 | 90 | 1.7 | 0.0 | 0.00 | 0.00 | 0.00 | 44 | 1065.7 |
| 20260509085030 | 65 | 135 | 5.2 | 0.0 | 0.00 | 0.00 | 0.00 | 44 | 1065.7 |
| 20260509084924 | 64 | 90 | 8.7 | 0.0 | 0.00 | 0.00 | 0.00 | 43 | 1065.8 |
| 20260509084803 | 64 | 135 | 5.2 | 0.0 | 0.00 | 0.00 | 0.00 | 42 | 1065.8 |
| 20260509084643 | 64 | 90 | 7.8 | 0.0 | 0.00 | 0.00 | 0.00 | 43 | 1065.8 |
| 20260509084537 | 64 | 135 | 5.2 | 0.0 | 0.00 | 0.00 | 0.00 | 43 | 1065.8 |
| 20260509084424 | 64 | 112 | 5.2 | 0.0 | 0.00 | 0.00 | 0.00 | 43 | 1065.8 |
| 20260509084303 | 65 | 112 | 4.3 | 0.0 | 0.00 | 0.00 | 0.00 | 43 | 1065.8 |
| 20260509084142 | 65 | 112 | 5.2 | 0.0 | 0.00 | 0.00 | 0.00 | 42 | 1065.8 |
| 20260509084022 | 66 | 135 | 3.5 | 0.0 | 0.00 | 0.00 | 0.00 | 43 | 1065.8 |
| 20260509083918 | 66 | 112 | 2.6 | 0.0 | 0.00 | 0.00 | 0.00 | 41 | 1065.8 |
| 20260509083813 | 66 | 45 | 4.3 | 0.0 | 0.00 | 0.00 | 0.00 | 42 | 1065.8 |
| 20260509083705 | 67 | 112 | 3.5 | 0.0 | 0.00 | 0.00 | 0.00 | 41 | 1065.8 |
| 20260509083544 | 68 | 135 | 7.0 | 0.0 | 0.00 | 0.00 | 0.00 | 39 | 1065.8 |
| 20260509083423 | 68 | 135 | 6.1 | 0.0 | 0.00 | 0.00 | 0.00 | 39 | 1065.8 |
| 20260509083310 | 69 | 112 | 0.0 | 0.0 | 0.00 | 0.00 | 0.00 | 37 | 1065.8 |
| 20260509083157 | 69 | 67 | 6.1 | 0.0 | 0.00 | 0.00 | 0.00 | 37 | 1065.8 |
| 20260509083034 | 70 | 112 | 6.1 | 0.0 | 0.00 | 0.00 | 0.00 | 39 | 1065.8 |
| 20260509082922 | 70 | 90 | 6.1 | 0.0 | 0.00 | 0.00 | 0.00 | 39 | 1065.9 |
| 20260509082808 | 71 | 112 | 6.1 | 0.0 | 0.00 | 0.00 | 0.00 | 39 | 1065.9 |
| 20260509082659 | 71 | 22 | 2.6 | 0.0 | 0.00 | 0.00 | 0.00 | 40 | 1066.0 |
| 20260509082551 | 71 | 135 | 8.7 | 0.0 | 0.00 | 0.00 | 0.00 | 39 | 1066.0 |
| 20260509082440 | 71 | 135 | 5.2 | 0.0 | 0.00 | 0.00 | 0.00 | 40 | 1066.0 |
| 20260509082333 | 71 | 157 | 4.3 | 0.0 | 0.00 | 0.00 | 0.00 | 40 | 1066.1 |
| 20260509082219 | 71 | 157 | 6.1 | 0.0 | 0.00 | 0.00 | 0.00 | 41 | 1066.0 |
| 20260509082101 | 71 | 135 | 4.3 | 0.0 | 0.00 | 0.00 | 0.00 | 41 | 1066.0 |
| 20260509081947 | 70 | 112 | 7.0 | 0.0 | 0.00 | 0.00 | 0.00 | 42 | 1066.0 |
| 20260509081843 | 70 | 112 | 0.0 | 0.0 | 0.00 | 0.00 | 0.00 | 43 | 1066.0 |
| 20260509081735 | 69 | 112 | 2.6 | 0.0 | 0.00 | 0.00 | 0.00 | 43 | 1066.1 |
| 20260509081622 | 69 | 135 | 5.2 | 0.0 | 0.00 | 0.00 | 0.00 | 43 | 1066.0 |
| 20260509081454 | 69 | 135 | 4.3 | 0.0 | 0.00 | 0.00 | 0.00 | 42 | 1066.0 |
| 20260509081340 | 69 | 67 | 5.2 | 0.0 | 0.00 | 0.00 | 0.00 | 42 | 1066.0 |
| 20260509081226 | 69 | 112 | 5.2 | 0.0 | 0.00 | 0.00 | 0.00 | 41 | 1066.1 |
| 20260509081114 | 69 | 90 | 6.1 | 0.0 | 0.00 | 0.00 | 0.00 | 42 | 1066.1 |
| 20260509080953 | 70 | 90 | 8.7 | 0.0 | 0.00 | 0.00 | 0.00 | 42 | 1066.2 |
| 20260509080847 | 71 | 112 | 5.2 | 0.0 | 0.00 | 0.00 | 0.00 | 43 | 1066.1 |
| 20260509080725 | 70 | 112 | 7.8 | 0.0 | 0.00 | 0.00 | 0.00 | 44 | 1066.1 |
| 20260509080606 | 70 | 112 | 0.0 | 0.0 | 0.00 | 0.00 | 0.00 | 44 | 1066.0 |
| 20260509080500 | 70 | 135 | 0.0 | 0.0 | 0.00 | 0.00 | 0.00 | 45 | 1066.1 |
| 20260509080355 | 69 | 135 | 0.0 | 0.0 | 0.00 | 0.00 | 0.00 | 44 | 1066.1 |
| 20260509080250 | 69 | 135 | 1.7 | 0.0 | 0.00 | 0.00 | 0.00 | 43 | 1065.9 |
| 20260509080129 | 70 | 135 | 5.2 | 0.0 | 0.00 | 0.00 | 0.00 | 43 | 1066.0 |
| 20260509080025 | 70 | 135 | 6.1 | 0.0 | 0.00 | 0.00 | 0.00 | 42 | 1066.0 |
| 20260509075918 | 71 | 112 | 2.6 | 0.0 | 0.00 | 0.00 | 0.00 | 43 | 1066.1 |
| 20260509075757 | 71 | 67 | 1.7 | 0.0 | 0.00 | 0.00 | 0.00 | 44 | 1066.0 |
| 20260509075646 | 70 | 112 | 2.6 | 0.0 | 0.00 | 0.00 | 0.00 | 45 | 1066.2 |
| 20260509075531 | 69 | 157 | 3.5 | 0.0 | 0.00 | 0.00 | 0.00 | 46 | 1066.0 |
| 20260509075409 | 69 | 135 | 1.7 | 0.0 | 0.00 | 0.00 | 0.00 | 45 | 1066.1 |
| 20260509075239 | 69 | 135 | 5.2 | 0.0 | 0.00 | 0.00 | 0.00 | 45 | 1066.2 |
| 20260509075120 | 70 | 67 | 3.5 | 0.0 | 0.00 | 0.00 | 0.00 | 44 | 1066.0 |
| 20260509074957 | 70 | 135 | 7.0 | 0.0 | 0.00 | 0.00 | 0.00 | 45 | 1066.1 |
| 20260509074845 | 70 | 157 | 5.2 | 0.0 | 0.00 | 0.00 | 0.00 | 45 | 1066.2 |
| 20260509074734 | 70 | 135 | 6.1 | 0.0 | 0.00 | 0.00 | 0.00 | 46 | 1066.0 |
| 20260509074626 | 70 | 112 | 4.3 | 0.0 | 0.00 | 0.00 | 0.00 | 47 | 1066.1 |
| 20260509074506 | 69 | 90 | 4.3 | 0.0 | 0.00 | 0.00 | 0.00 | 48 | 1066.1 |
| 20260509074352 | 69 | 112 | 4.3 | 0.0 | 0.00 | 0.00 | 0.00 | 48 | 1066.2 |
| 20260509074233 | 69 | 135 | 5.2 | 0.0 | 0.00 | 0.00 | 0.00 | 48 | 1066.2 |
| 20260509074125 | 68 | 135 | 1.7 | 0.0 | 0.00 | 0.00 | 0.00 | 49 | 1066.1 |
| 20260509074012 | 68 | 135 | 0.9 | 0.0 | 0.00 | 0.00 | 0.00 | 48 | 1066.1 |
| 20260509073859 | 68 | 135 | 4.3 | 0.0 | 0.00 | 0.00 | 0.00 | 47 | 1066.1 |
| 20260509073730 | 68 | 67 | 5.2 | 0.0 | 0.00 | 0.00 | 0.00 | 49 | 1066.1 |
| 20260509073609 | 68 | 135 | 3.5 | 0.0 | 0.00 | 0.00 | 0.00 | 49 | 1066.1 |
| 20260509073456 | 68 | 112 | 6.1 | 0.0 | 0.00 | 0.00 | 0.00 | 49 | 1066.1 |
| 20260509073343 | 68 | 112 | 5.2 | 0.0 | 0.00 | 0.00 | 0.00 | 50 | 1066.0 |
| 20260509073230 | 67 | 135 | 3.5 | 0.0 | 0.00 | 0.00 | 0.00 | 49 | 1066.2 |
| 20260509073108 | 67 | 135 | 6.1 | 0.0 | 0.00 | 0.00 | 0.00 | 50 | 1066.1 |
| 20260509072954 | 67 | 135 | 4.3 | 0.0 | 0.00 | 0.00 | 0.00 | 50 | 1066.1 |
| 20260509072834 | 67 | 135 | 6.1 | 0.0 | 0.00 | 0.00 | 0.00 | 50 | 1066.0 |
| 20260509072713 | 67 | 135 | 3.5 | 0.0 | 0.00 | 0.00 | 0.00 | 49 | 1066.0 |
| 20260509072559 | 68 | 157 | 4.3 | 0.0 | 0.00 | 0.00 | 0.00 | 49 | 1066.0 |
| 20260509072439 | 68 | 157 | 7.8 | 0.0 | 0.00 | 0.00 | 0.00 | 49 | 1065.9 |
| 20260509072325 | 68 | 112 | 4.3 | 0.0 | 0.00 | 0.00 | 0.00 | 51 | 1065.9 |
| 20260509072212 | 68 | 135 | 4.3 | 0.0 | 0.00 | 0.00 | 0.00 | 51 | 1065.9 |
| 20260509072101 | 68 | 135 | 4.3 | 0.0 | 0.00 | 0.00 | 0.00 | 51 | 1066.0 |
| 20260509071953 | 67 | 135 | 6.1 | 0.0 | 0.00 | 0.00 | 0.00 | 52 | 1066.0 |
| 20260509071841 | 67 | 135 | 0.0 | 0.0 | 0.00 | 0.00 | 0.00 | 53 | 1066.0 |
| 20260509071728 | 66 | 157 | 3.5 | 0.0 | 0.00 | 0.00 | 0.00 | 54 | 1066.1 |
| 20260509071614 | 66 | 112 | 5.2 | 0.0 | 0.00 | 0.00 | 0.00 | 54 | 1066.0 |
| 20260509071501 | 66 | 135 | 0.0 | 0.0 | 0.00 | 0.00 | 0.00 | 54 | 1065.9 |
| 20260509071348 | 66 | 180 | 5.2 | 0.0 | 0.00 | 0.00 | 0.00 | 54 | 1066.0 |
| 20260509071235 | 65 | 112 | 4.3 | 0.0 | 0.00 | 0.00 | 0.00 | 54 | 1066.0 |
| 20260509071123 | 65 | 135 | 6.1 | 0.0 | 0.00 | 0.00 | 0.00 | 54 | 1066.1 |
| 20260509071018 | 65 | 135 | 5.2 | 0.0 | 0.00 | 0.00 | 0.00 | 54 | 1066.2 |
| 20260509070903 | 65 | 135 | 1.7 | 0.0 | 0.00 | 0.00 | 0.00 | 56 | 1066.1 |
| 20260509070744 | 64 | 135 | 5.2 | 0.0 | 0.00 | 0.00 | 0.00 | 56 | 1066.1 |
| 20260509070637 | 64 | 135 | 7.0 | 0.0 | 0.00 | 0.00 | 0.00 | 56 | 1066.0 |
| 20260509070524 | 64 | 135 | 2.6 | 0.0 | 0.00 | 0.00 | 0.00 | 56 | 1066.0 |
| 20260509070403 | 64 | 135 | 4.3 | 0.0 | 0.00 | 0.00 | 0.00 | 55 | 1066.0 |
| 20260509070250 | 64 | 135 | 5.2 | 0.0 | 0.00 | 0.00 | 0.00 | 56 | 1065.9 |
| 20260509070129 | 64 | 157 | 6.1 | 0.0 | 0.00 | 0.00 | 0.00 | 57 | 1066.1 |
| 20260509070008 | 63 | 135 | 0.0 | 0.0 | 0.00 | 0.00 | 0.00 | 57 | 1066.3 |
| 20260509065854 | 63 | 157 | 1.7 | 0.0 | 0.00 | 0.00 | 0.00 | 56 | 1066.1 |
| 20260509065740 | 63 | 135 | 4.3 | 0.0 | 0.00 | 0.00 | 0.00 | 57 | 1066.0 |
| 20260509065627 | 63 | 157 | 2.6 | 0.0 | 0.00 | 0.00 | 0.00 | 58 | 1065.9 |
| 20260509065457 | 62 | 157 | 4.3 | 0.0 | 0.00 | 0.00 | 0.00 | 57 | 1066.0 |
| 20260509065329 | 62 | 135 | 5.2 | 0.0 | 0.00 | 0.00 | 0.00 | 59 | 1066.0 |
| 20260509065224 | 62 | 112 | 4.3 | 0.0 | 0.00 | 0.00 | 0.00 | 59 | 1065.9 |
| 20260509065110 | 62 | 135 | 4.3 | 0.0 | 0.00 | 0.00 | 0.00 | 59 | 1066.0 |
| 20260509064949 | 62 | 112 | 5.2 | 0.0 | 0.00 | 0.00 | 0.00 | 60 | 1065.9 |
| 20260509064827 | 61 | 135 | 3.5 | 0.0 | 0.00 | 0.00 | 0.00 | 60 | 1065.9 |
| 20260509064707 | 61 | 135 | 5.2 | 0.0 | 0.00 | 0.00 | 0.00 | 61 | 1066.0 |
| 20260509064554 | 60 | 157 | 3.5 | 0.0 | 0.00 | 0.00 | 0.00 | 61 | 1065.9 |
| 20260509064448 | 60 | 180 | 6.1 | 0.0 | 0.00 | 0.00 | 0.00 | 61 | 1066.0 |
| 20260509064328 | 60 | 180 | 7.0 | 0.0 | 0.00 | 0.00 | 0.00 | 61 | 1065.9 |
| 20260509064222 | 60 | 135 | 4.3 | 0.0 | 0.00 | 0.00 | 0.00 | 61 | 1066.0 |
| 20260509064109 | 60 | 157 | 3.5 | 0.0 | 0.00 | 0.00 | 0.00 | 62 | 1066.0 |
| 20260509063956 | 60 | 135 | 3.5 | 0.0 | 0.00 | 0.00 | 0.00 | 62 | 1065.9 |
| 20260509063834 | 59 | 135 | 7.0 | 0.0 | 0.00 | 0.00 | 0.00 | 62 | 1065.9 |
| 20260509063714 | 59 | 157 | 8.7 | 0.0 | 0.00 | 0.00 | 0.00 | 62 | 1065.9 |
| 20260509063609 | 59 | 135 | 5.2 | 0.0 | 0.00 | 0.00 | 0.00 | 62 | 1066.0 |
| 20260509063449 | 59 | 112 | 7.0 | 0.0 | 0.00 | 0.00 | 0.00 | 62 | 1066.0 |
| 20260509063344 | 59 | 135 | 2.6 | 0.0 | 0.00 | 0.00 | 0.00 | 62 | 1066.0 |
| 20260509063237 | 59 | 112 | 4.3 | 0.0 | 0.00 | 0.00 | 0.00 | 63 | 1065.9 |
| 20260509063124 | 59 | 112 | 6.1 | 0.0 | 0.00 | 0.00 | 0.00 | 63 | 1065.9 |
| 20260509063011 | 59 | 135 | 5.2 | 0.0 | 0.00 | 0.00 | 0.00 | 63 | 1066.0 |
| 20260509062906 | 59 | 112 | 4.3 | 0.0 | 0.00 | 0.00 | 0.00 | 63 | 1066.0 |
| 20260509062737 | 59 | 157 | 7.0 | 0.0 | 0.00 | 0.00 | 0.00 | 62 | 1066.0 |
| 20260509062624 | 59 | 135 | 7.0 | 0.0 | 0.00 | 0.00 | 0.00 | 62 | 1066.0 |
| 20260509062456 | 59 | 135 | 5.2 | 0.0 | 0.00 | 0.00 | 0.00 | 63 | 1065.9 |
| 20260509062351 | 59 | 135 | 7.0 | 0.0 | 0.00 | 0.00 | 0.00 | 63 | 1066.0 |
| 20260509062244 | 59 | 135 | 5.2 | 0.0 | 0.00 | 0.00 | 0.00 | 63 | 1066.0 |
| 20260509062131 | 59 | 135 | 5.2 | 0.0 | 0.00 | 0.00 | 0.00 | 63 | 1066.0 |
| 20260509062026 | 59 | 135 | 5.2 | 0.0 | 0.00 | 0.00 | 0.00 | 63 | 1066.0 |
| 20260509061913 | 59 | 135 | 7.0 | 0.0 | 0.00 | 0.00 | 0.00 | 63 | 1066.0 |
| 20260509061801 | 59 | 157 | 5.2 | 0.0 | 0.00 | 0.00 | 0.00 | 62 | 1066.0 |
| 20260509061655 | 60 | 112 | 6.1 | 0.0 | 0.00 | 0.00 | 0.00 | 62 | 1066.0 |
| 20260509061542 | 60 | 135 | 8.7 | 0.0 | 0.00 | 0.00 | 0.00 | 62 | 1066.1 |
| 20260509061428 | 60 | 157 | 7.8 | 0.0 | 0.00 | 0.00 | 0.00 | 63 | 1066.0 |
| 20260509061259 | 60 | 157 | 1.7 | 0.0 | 0.00 | 0.00 | 0.00 | 63 | 1065.9 |
| 20260509061145 | 60 | 112 | 1.7 | 0.0 | 0.00 | 0.00 | 0.00 | 63 | 1065.9 |
| 20260509061025 | 60 | 157 | 3.5 | 0.0 | 0.00 | 0.00 | 0.00 | 63 | 1066.0 |
| 20260509060913 | 60 | 112 | 4.3 | 0.0 | 0.00 | 0.00 | 0.00 | 64 | 1066.0 |
| 20260509060759 | 59 | 135 | 1.7 | 0.0 | 0.00 | 0.00 | 0.00 | 64 | 1066.0 |
| 20260509060654 | 59 | 135 | 3.5 | 0.0 | 0.00 | 0.00 | 0.00 | 64 | 1066.0 |
| 20260509060548 | 59 | 135 | 3.5 | 0.0 | 0.00 | 0.00 | 0.00 | 65 | 1066.0 |
| 20260509060435 | 59 | 135 | 2.6 | 0.0 | 0.00 | 0.00 | 0.00 | 64 | 1066.0 |
| 20260509060321 | 59 | 157 | 4.3 | 0.0 | 0.00 | 0.00 | 0.00 | 64 | 1065.9 |
| 20260509060211 | 59 | 157 | 5.2 | 0.0 | 0.00 | 0.00 | 0.00 | 65 | 1066.0 |
| 20260509060106 | 59 | 135 | 3.5 | 0.0 | 0.00 | 0.00 | 0.00 | 65 | 1066.0 |
| 20260509055958 | 59 | 135 | 4.3 | 0.0 | 0.00 | 0.00 | 0.00 | 65 | 1066.0 |
| 20260509055836 | 59 | 157 | 2.6 | 0.0 | 0.00 | 0.00 | 0.00 | 65 | 1066.0 |
| 20260509055716 | 58 | 135 | 2.6 | 0.0 | 0.00 | 0.00 | 0.00 | 65 | 1066.0 |
| 20260509055603 | 58 | 157 | 1.7 | 0.0 | 0.00 | 0.00 | 0.00 | 65 | 1066.0 |
| 20260509055458 | 58 | 157 | 5.2 | 0.0 | 0.00 | 0.00 | 0.00 | 65 | 1065.9 |
| 20260509055329 | 58 | 112 | 1.7 | 0.0 | 0.00 | 0.00 | 0.00 | 65 | 1065.9 |
| 20260509055215 | 58 | 135 | 6.1 | 0.0 | 0.00 | 0.00 | 0.00 | 66 | 1066.0 |
| 20260509055046 | 58 | 135 | 4.3 | 0.0 | 0.00 | 0.00 | 0.00 | 67 | 1065.9 |
| 20260509054933 | 58 | 135 | 1.7 | 0.0 | 0.00 | 0.00 | 0.00 | 67 | 1065.9 |
| 20260509054828 | 57 | 135 | 0.9 | 0.0 | 0.00 | 0.00 | 0.00 | 67 | 1065.9 |
| 20260509054706 | 58 | 135 | 5.2 | 0.0 | 0.00 | 0.00 | 0.00 | 67 | 1065.9 |
| 20260509054545 | 58 | 135 | 4.3 | 0.0 | 0.00 | 0.00 | 0.00 | 67 | 1065.9 |
| 20260509054417 | 57 | 135 | 2.6 | 0.0 | 0.00 | 0.00 | 0.00 | 67 | 1065.9 |
| 20260509054312 | 57 | 135 | 4.3 | 0.0 | 0.00 | 0.00 | 0.00 | 67 | 1066.0 |
| 20260509054207 | 57 | 135 | 4.3 | 0.0 | 0.00 | 0.00 | 0.00 | 68 | 1065.9 |
| 20260509054052 | 57 | 135 | 1.7 | 0.0 | 0.00 | 0.00 | 0.00 | 68 | 1065.9 |
| 20260509053924 | 57 | 135 | 3.5 | 0.0 | 0.00 | 0.00 | 0.00 | 68 | 1065.8 |
| 20260509053811 | 57 | 135 | 4.3 | 0.0 | 0.00 | 0.00 | 0.00 | 68 | 1065.9 |
| 20260509053705 | 57 | 135 | 5.2 | 0.0 | 0.00 | 0.00 | 0.00 | 69 | 1065.9 |
| 20260509053552 | 57 | 135 | 4.3 | 0.0 | 0.00 | 0.00 | 0.00 | 70 | 1065.8 |
| 20260509053439 | 56 | 135 | 0.0 | 0.0 | 0.00 | 0.00 | 0.00 | 70 | 1065.9 |
| 20260509053325 | 56 | 135 | 0.9 | 0.0 | 0.00 | 0.00 | 0.00 | 70 | 1065.8 |
| 20260509053212 | 56 | 135 | 1.7 | 0.0 | 0.00 | 0.00 | 0.00 | 70 | 1065.8 |
| 20260509053059 | 56 | 135 | 3.5 | 0.0 | 0.00 | 0.00 | 0.00 | 70 | 1065.8 |
| 20260509052947 | 56 | 135 | 3.5 | 0.0 | 0.00 | 0.00 | 0.00 | 70 | 1065.8 |
| 20260509052833 | 56 | 135 | 3.5 | 0.0 | 0.00 | 0.00 | 0.00 | 71 | 1065.8 |
| 20260509052727 | 55 | 135 | 1.7 | 0.0 | 0.00 | 0.00 | 0.00 | 71 | 1065.9 |
| 20260509052606 | 55 | 135 | 5.2 | 0.0 | 0.00 | 0.00 | 0.00 | 71 | 1065.8 |
| 20260509052447 | 55 | 135 | 0.0 | 0.0 | 0.00 | 0.00 | 0.00 | 72 | 1065.8 |
| 20260509052330 | 55 | 135 | 0.0 | 0.0 | 0.00 | 0.00 | 0.00 | 72 | 1065.8 |
| 20260509052211 | 54 | 135 | 4.3 | 0.0 | 0.00 | 0.00 | 0.00 | 72 | 1065.8 |
| 20260509052105 | 54 | 135 | 5.2 | 0.0 | 0.00 | 0.00 | 0.00 | 72 | 1065.7 |
| 20260509051954 | 54 | 135 | 3.5 | 0.0 | 0.00 | 0.00 | 0.00 | 72 | 1065.8 |
| 20260509051839 | 54 | 157 | 4.3 | 0.0 | 0.00 | 0.00 | 0.00 | 72 | 1065.8 |
| 20260509051734 | 54 | 135 | 4.3 | 0.0 | 0.00 | 0.00 | 0.00 | 73 | 1065.8 |
| 20260509051614 | 54 | 135 | 5.2 | 0.0 | 0.00 | 0.00 | 0.00 | 73 | 1065.8 |
| 20260509051459 | 54 | 135 | 4.3 | 0.0 | 0.00 | 0.00 | 0.00 | 73 | 1065.8 |
| 20260509051345 | 54 | 135 | 3.5 | 0.0 | 0.00 | 0.00 | 0.00 | 74 | 1065.7 |
| 20260509051224 | 54 | 135 | 2.6 | 0.0 | 0.00 | 0.00 | 0.00 | 74 | 1065.9 |
| 20260509051106 | 53 | 112 | 3.5 | 0.0 | 0.00 | 0.00 | 0.00 | 75 | 1065.8 |
| 20260509050957 | 53 | 135 | 1.7 | 0.0 | 0.00 | 0.00 | 0.00 | 75 | 1065.7 |
| 20260509050844 | 53 | 135 | 1.7 | 0.0 | 0.00 | 0.00 | 0.00 | 75 | 1065.7 |
| 20260509050724 | 53 | 135 | 2.6 | 0.0 | 0.00 | 0.00 | 0.00 | 76 | 1065.7 |
| 20260509050611 | 53 | 135 | 3.5 | 0.0 | 0.00 | 0.00 | 0.00 | 76 | 1065.7 |
| 20260509050506 | 53 | 112 | 2.6 | 0.0 | 0.00 | 0.00 | 0.00 | 76 | 1065.6 |
| 20260509050401 | 52 | 135 | 5.2 | 0.0 | 0.00 | 0.00 | 0.00 | 76 | 1065.6 |
| 20260509050255 | 52 | 135 | 2.6 | 0.0 | 0.00 | 0.00 | 0.00 | 76 | 1065.6 |
| 20260509050149 | 52 | 112 | 3.5 | 0.0 | 0.00 | 0.00 | 0.00 | 76 | 1065.6 |
| 20260509050034 | 52 | 135 | 5.2 | 0.0 | 0.00 | 0.00 | 0.00 | 77 | 1065.6 |
| 20260509045913 | 52 | 135 | 5.2 | 0.0 | 0.00 | 0.00 | 0.00 | 77 | 1065.6 |
| 20260509045806 | 52 | 135 | 5.2 | 0.0 | 0.00 | 0.00 | 0.00 | 77 | 1065.5 |
| 20260509045652 | 52 | 135 | 3.5 | 0.0 | 0.00 | 0.00 | 0.00 | 78 | 1065.6 |
| 20260509045546 | 52 | 135 | 3.5 | 0.0 | 0.00 | 0.00 | 0.00 | 78 | 1065.6 |
| 20260509045426 | 52 | 135 | 3.5 | 0.0 | 0.00 | 0.00 | 0.00 | 78 | 1065.6 |
| 20260509045320 | 52 | 135 | 2.6 | 0.0 | 0.00 | 0.00 | 0.00 | 79 | 1065.6 |
| 20260509045206 | 51 | 112 | 2.6 | 0.0 | 0.00 | 0.00 | 0.00 | 79 | 1065.6 |
| 20260509045052 | 51 | 112 | 3.5 | 0.0 | 0.00 | 0.00 | 0.00 | 79 | 1065.5 |
| 20260509044934 | 51 | 135 | 2.6 | 0.0 | 0.00 | 0.00 | 0.00 | 80 | 1065.6 |
| 20260509044819 | 51 | 135 | 2.6 | 0.0 | 0.00 | 0.00 | 0.00 | 80 | 1065.6 |
| 20260509044706 | 51 | 135 | 4.3 | 0.0 | 0.00 | 0.00 | 0.00 | 81 | 1065.6 |
| 20260509044600 | 51 | 135 | 2.6 | 0.0 | 0.00 | 0.00 | 0.00 | 81 | 1065.6 |
| 20260509044447 | 50 | 135 | 1.7 | 0.0 | 0.00 | 0.00 | 0.00 | 82 | 1065.6 |
| 20260509044342 | 50 | 135 | 1.7 | 0.0 | 0.00 | 0.00 | 0.00 | 82 | 1065.6 |
| 20260509044235 | 50 | 135 | 2.6 | 0.0 | 0.00 | 0.00 | 0.00 | 82 | 1065.6 |
| 20260509044114 | 49 | 135 | 2.6 | 0.0 | 0.00 | 0.00 | 0.00 | 83 | 1065.6 |
| 20260509044000 | 49 | 135 | 4.3 | 0.0 | 0.00 | 0.00 | 0.00 | 83 | 1065.5 |
| 20260509043845 | 49 | 135 | 4.3 | 0.0 | 0.00 | 0.00 | 0.00 | 84 | 1065.6 |
| 20260509043726 | 49 | 112 | 2.6 | 0.0 | 0.00 | 0.00 | 0.00 | 84 | 1065.6 |
| 20260509043618 | 48 | 135 | 0.9 | 0.0 | 0.00 | 0.00 | 0.00 | 84 | 1065.6 |
| 20260509043505 | 48 | 135 | 3.5 | 0.0 | 0.00 | 0.00 | 0.00 | 85 | 1065.6 |
| 20260509043359 | 48 | 112 | 3.5 | 0.0 | 0.00 | 0.00 | 0.00 | 85 | 1065.6 |
| 20260509043232 | 48 | 135 | 2.6 | 0.0 | 0.00 | 0.00 | 0.00 | 85 | 1065.6 |
| 20260509043127 | 48 | 135 | 3.5 | 0.0 | 0.00 | 0.00 | 0.00 | 86 | 1065.5 |
| 20260509043020 | 47 | 135 | 4.3 | 0.0 | 0.00 | 0.00 | 0.00 | 86 | 1065.6 |
| 20260509042859 | 47 | 135 | 2.6 | 0.0 | 0.00 | 0.00 | 0.00 | 86 | 1065.6 |
| 20260509042747 | 47 | 135 | 3.5 | 0.0 | 0.00 | 0.00 | 0.00 | 86 | 1065.5 |
| 20260509042641 | 47 | 135 | 5.2 | 0.0 | 0.00 | 0.00 | 0.00 | 86 | 1065.6 |
| 20260509042519 | 47 | 135 | 4.3 | 0.0 | 0.00 | 0.00 | 0.00 | 87 | 1065.5 |
| 20260509042351 | 47 | 135 | 3.5 | 0.0 | 0.00 | 0.00 | 0.00 | 87 | 1065.6 |
| 20260509042245 | 46 | 135 | 3.5 | 0.0 | 0.00 | 0.00 | 0.00 | 87 | 1065.5 |
| 20260509042132 | 46 | 135 | 1.7 | 0.0 | 0.00 | 0.00 | 0.00 | 87 | 1065.5 |
| 20260509042021 | 46 | 135 | 3.5 | 0.0 | 0.00 | 0.00 | 0.00 | 87 | 1065.5 |
| 20260509041914 | 46 | 135 | 4.3 | 0.0 | 0.00 | 0.00 | 0.00 | 87 | 1065.6 |
| 20260509041753 | 46 | 112 | 3.5 | 0.0 | 0.00 | 0.00 | 0.00 | 87 | 1065.5 |
| 20260509041640 | 46 | 135 | 3.5 | 0.0 | 0.00 | 0.00 | 0.00 | 88 | 1065.6 |
| 20260509041526 | 46 | 135 | 1.7 | 0.0 | 0.00 | 0.00 | 0.00 | 88 | 1065.6 |
| 20260509041412 | 46 | 135 | 0.9 | 0.0 | 0.00 | 0.00 | 0.00 | 88 | 1065.6 |
| 20260509041259 | 46 | 135 | 3.5 | 0.0 | 0.00 | 0.00 | 0.00 | 88 | 1065.6 |
| 20260509041147 | 46 | 135 | 1.7 | 0.0 | 0.00 | 0.00 | 0.00 | 88 | 1065.7 |
| 20260509041034 | 45 | 135 | 3.5 | 0.0 | 0.00 | 0.00 | 0.00 | 88 | 1065.6 |
| 20260509040920 | 45 | 135 | 2.6 | 0.0 | 0.00 | 0.00 | 0.00 | 88 | 1065.7 |
| 20260509040759 | 45 | 135 | 2.6 | 0.0 | 0.00 | 0.00 | 0.00 | 88 | 1065.7 |
| 20260509040646 | 45 | 135 | 2.6 | 0.0 | 0.00 | 0.00 | 0.00 | 88 | 1065.7 |
| 20260509040525 | 45 | 135 | 2.6 | 0.0 | 0.00 | 0.00 | 0.00 | 88 | 1065.7 |
| 20260509040404 | 45 | 135 | 0.0 | 0.0 | 0.00 | 0.00 | 0.00 | 87 | 1065.7 |
| 20260509040251 | 45 | 135 | 1.7 | 0.0 | 0.00 | 0.00 | 0.00 | 87 | 1065.7 |
| 20260509040137 | 45 | 157 | 1.7 | 0.0 | 0.00 | 0.00 | 0.00 | 87 | 1065.7 |
| 20260509040024 | 45 | 135 | 0.0 | 0.0 | 0.00 | 0.00 | 0.00 | 87 | 1065.7 |
| 20260509035905 | 45 | 157 | 0.0 | 0.0 | 0.00 | 0.00 | 0.00 | 87 | 1065.7 |
| 20260509035749 | 45 | 157 | 1.7 | 0.0 | 0.00 | 0.00 | 0.00 | 87 | 1065.7 |
| 20260509035636 | 45 | 135 | 0.0 | 0.0 | 0.00 | 0.00 | 0.00 | 87 | 1065.7 |
| 20260509035517 | 45 | 135 | 0.0 | 0.0 | 0.00 | 0.00 | 0.00 | 87 | 1065.8 |
| 20260509035412 | 45 | 135 | 0.0 | 0.0 | 0.00 | 0.00 | 0.00 | 87 | 1065.7 |
| 20260509035257 | 45 | 135 | 0.0 | 0.0 | 0.00 | 0.00 | 0.00 | 87 | 1065.8 |
| 20260509035145 | 45 | 135 | 0.0 | 0.0 | 0.00 | 0.00 | 0.00 | 87 | 1065.8 |
| 20260509035039 | 45 | 135 | 0.0 | 0.0 | 0.00 | 0.00 | 0.00 | 87 | 1065.7 |
| 20260509034934 | 45 | 135 | 0.0 | 0.0 | 0.00 | 0.00 | 0.00 | 87 | 1065.8 |
| 20260509034827 | 45 | 135 | 3.5 | 0.0 | 0.00 | 0.00 | 0.00 | 87 | 1065.8 |
| 20260509034713 | 45 | 135 | 0.0 | 0.0 | 0.00 | 0.00 | 0.00 | 87 | 1065.8 |
| 20260509034601 | 45 | 135 | 0.0 | 0.0 | 0.00 | 0.00 | 0.00 | 87 | 1065.7 |
| 20260509034448 | 45 | 135 | 0.0 | 0.0 | 0.00 | 0.00 | 0.00 | 87 | 1065.8 |
| 20260509034342 | 45 | 135 | 0.0 | 0.0 | 0.00 | 0.00 | 0.00 | 87 | 1065.7 |
| 20260509034221 | 44 | 135 | 0.0 | 0.0 | 0.00 | 0.00 | 0.00 | 86 | 1065.7 |
| 20260509034108 | 45 | 135 | 0.0 | 0.0 | 0.00 | 0.00 | 0.00 | 86 | 1065.7 |
| 20260509033947 | 45 | 135 | 1.7 | 0.0 | 0.00 | 0.00 | 0.00 | 86 | 1065.8 |
| 20260509033842 | 44 | 135 | 0.0 | 0.0 | 0.00 | 0.00 | 0.00 | 86 | 1065.7 |
| 20260509033720 | 45 | 135 | 0.0 | 0.0 | 0.00 | 0.00 | 0.00 | 86 | 1065.7 |
| 20260509033600 | 45 | 135 | 0.0 | 0.0 | 0.00 | 0.00 | 0.00 | 86 | 1065.7 |
| 20260509033454 | 45 | 135 | 0.0 | 0.0 | 0.00 | 0.00 | 0.00 | 86 | 1065.7 |
| 20260509033349 | 45 | 135 | 0.0 | 0.0 | 0.00 | 0.00 | 0.00 | 86 | 1065.7 |
| 20260509033238 | 45 | 135 | 0.0 | 0.0 | 0.00 | 0.00 | 0.00 | 86 | 1065.7 |
| 20260509033130 | 45 | 135 | 0.0 | 0.0 | 0.00 | 0.00 | 0.00 | 86 | 1065.7 |
| 20260509033010 | 45 | 135 | 0.0 | 0.0 | 0.00 | 0.00 | 0.00 | 86 | 1065.7 |
| 20260509032905 | 45 | 135 | 0.0 | 0.0 | 0.00 | 0.00 | 0.00 | 86 | 1065.7 |
| 20260509032752 | 45 | 135 | 0.0 | 0.0 | 0.00 | 0.00 | 0.00 | 86 | 1065.7 |
| 20260509032630 | 45 | 135 | 0.0 | 0.0 | 0.00 | 0.00 | 0.00 | 86 | 1065.7 |
| 20260509032509 | 45 | 135 | 2.6 | 0.0 | 0.00 | 0.00 | 0.00 | 86 | 1065.7 |
| 20260509032348 | 45 | 135 | 0.0 | 0.0 | 0.00 | 0.00 | 0.00 | 86 | 1065.7 |
| 20260509032243 | 45 | 135 | 0.9 | 0.0 | 0.00 | 0.00 | 0.00 | 86 | 1065.6 |
| 20260509032138 | 45 | 135 | 0.0 | 0.0 | 0.00 | 0.00 | 0.00 | 85 | 1065.7 |
| 20260509032016 | 45 | 135 | 0.0 | 0.0 | 0.00 | 0.00 | 0.00 | 85 | 1065.6 |
| 20260509031903 | 45 | 135 | 1.7 | 0.0 | 0.00 | 0.00 | 0.00 | 85 | 1065.6 |
| 20260509031751 | 45 | 135 | 0.0 | 0.0 | 0.00 | 0.00 | 0.00 | 85 | 1065.7 |
| 20260509031645 | 45 | 135 | 1.7 | 0.0 | 0.00 | 0.00 | 0.00 | 85 | 1065.7 |
| 20260509031532 | 46 | 135 | 3.5 | 0.0 | 0.00 | 0.00 | 0.00 | 85 | 1065.6 |
| 20260509031419 | 46 | 135 | 0.0 | 0.0 | 0.00 | 0.00 | 0.00 | 85 | 1065.7 |
| 20260509031315 | 46 | 135 | 0.0 | 0.0 | 0.00 | 0.00 | 0.00 | 85 | 1065.6 |
| 20260509031210 | 46 | 135 | 1.7 | 0.0 | 0.00 | 0.00 | 0.00 | 85 | 1065.7 |
| 20260509031104 | 46 | 135 | 0.9 | 0.0 | 0.00 | 0.00 | 0.00 | 86 | 1065.7 |
| 20260509030951 | 46 | 135 | 0.0 | 0.0 | 0.00 | 0.00 | 0.00 | 86 | 1065.7 |
| 20260509030846 | 46 | 135 | 0.0 | 0.0 | 0.00 | 0.00 | 0.00 | 86 | 1065.7 |
| 20260509030725 | 46 | 135 | 0.9 | 0.0 | 0.00 | 0.00 | 0.00 | 86 | 1065.7 |
| 20260509030612 | 46 | 135 | 3.5 | 0.0 | 0.00 | 0.00 | 0.00 | 86 | 1065.7 |
| 20260509030507 | 46 | 157 | 1.7 | 0.0 | 0.00 | 0.00 | 0.00 | 86 | 1065.7 |
| 20260509030402 | 46 | 157 | 2.6 | 0.0 | 0.00 | 0.00 | 0.00 | 86 | 1065.6 |
| 20260509030256 | 46 | 157 | 0.0 | 0.0 | 0.00 | 0.00 | 0.00 | 86 | 1065.7 |
| 20260509030145 | 46 | 157 | 0.0 | 0.0 | 0.00 | 0.00 | 0.00 | 86 | 1065.7 |
| 20260509030032 | 46 | 157 | 3.5 | 0.0 | 0.00 | 0.00 | 0.00 | 86 | 1065.7 |
| 20260509025917 | 46 | 157 | 2.6 | 0.0 | 0.00 | 0.00 | 0.00 | 86 | 1065.7 |
| 20260509025805 | 46 | 157 | 3.5 | 0.0 | 0.00 | 0.00 | 0.00 | 86 | 1065.7 |
| 20260509025700 | 46 | 157 | 3.5 | 0.0 | 0.00 | 0.00 | 0.00 | 86 | 1065.7 |
| 20260509025554 | 46 | 157 | 3.5 | 0.0 | 0.00 | 0.00 | 0.00 | 86 | 1065.8 |
| 20260509025449 | 46 | 135 | 3.5 | 0.0 | 0.00 | 0.00 | 0.00 | 86 | 1065.7 |
| 20260509025328 | 46 | 135 | 4.3 | 0.0 | 0.00 | 0.00 | 0.00 | 86 | 1065.7 |
| 20260509025215 | 46 | 135 | 3.5 | 0.0 | 0.00 | 0.00 | 0.00 | 86 | 1065.8 |
| 20260509025102 | 47 | 135 | 4.3 | 0.0 | 0.00 | 0.00 | 0.00 | 86 | 1065.7 |
| 20260509024948 | 46 | 157 | 4.3 | 0.0 | 0.00 | 0.00 | 0.00 | 86 | 1065.8 |
| 20260509024820 | 46 | 135 | 3.5 | 0.0 | 0.00 | 0.00 | 0.00 | 86 | 1065.8 |
| 20260509024714 | 46 | 157 | 3.5 | 0.0 | 0.00 | 0.00 | 0.00 | 86 | 1065.9 |
| 20260509024609 | 46 | 157 | 4.3 | 0.0 | 0.00 | 0.00 | 0.00 | 86 | 1065.9 |
| 20260509024504 | 46 | 135 | 2.6 | 0.0 | 0.00 | 0.00 | 0.00 | 86 | 1065.8 |
| 20260509024351 | 46 | 157 | 0.0 | 0.0 | 0.00 | 0.00 | 0.00 | 86 | 1065.9 |
| 20260509024232 | 46 | 157 | 1.7 | 0.0 | 0.00 | 0.00 | 0.00 | 86 | 1065.9 |
| 20260509024125 | 46 | 157 | 1.7 | 0.0 | 0.00 | 0.00 | 0.00 | 86 | 1066.0 |
| 20260509024012 | 47 | 157 | 4.3 | 0.0 | 0.00 | 0.00 | 0.00 | 85 | 1065.9 |
| 20260509023906 | 47 | 157 | 3.5 | 0.0 | 0.00 | 0.00 | 0.00 | 86 | 1065.9 |
| 20260509023747 | 47 | 157 | 3.5 | 0.0 | 0.00 | 0.00 | 0.00 | 85 | 1065.9 |
| 20260509023634 | 47 | 157 | 1.7 | 0.0 | 0.00 | 0.00 | 0.00 | 86 | 1065.8 |
| 20260509023526 | 47 | 135 | 2.6 | 0.0 | 0.00 | 0.00 | 0.00 | 86 | 1065.9 |
| 20260509023416 | 47 | 157 | 0.9 | 0.0 | 0.00 | 0.00 | 0.00 | 86 | 1065.8 |
| 20260509023309 | 47 | 135 | 1.7 | 0.0 | 0.00 | 0.00 | 0.00 | 86 | 1065.8 |
| 20260509023155 | 47 | 135 | 1.7 | 0.0 | 0.00 | 0.00 | 0.00 | 86 | 1065.9 |
| 20260509023027 | 47 | 135 | 1.7 | 0.0 | 0.00 | 0.00 | 0.00 | 85 | 1065.9 |
| 20260509022922 | 47 | 157 | 1.7 | 0.0 | 0.00 | 0.00 | 0.00 | 85 | 1065.8 |
| 20260509022816 | 47 | 135 | 4.3 | 0.0 | 0.00 | 0.00 | 0.00 | 85 | 1065.9 |
| 20260509022647 | 47 | 135 | 3.5 | 0.0 | 0.00 | 0.00 | 0.00 | 86 | 1065.8 |
| 20260509022534 | 47 | 135 | 1.7 | 0.0 | 0.00 | 0.00 | 0.00 | 86 | 1065.9 |
| 20260509022421 | 47 | 135 | 2.6 | 0.0 | 0.00 | 0.00 | 0.00 | 86 | 1065.8 |
| 20260509022308 | 47 | 157 | 3.5 | 0.0 | 0.00 | 0.00 | 0.00 | 86 | 1065.8 |
| 20260509022146 | 47 | 135 | 2.6 | 0.0 | 0.00 | 0.00 | 0.00 | 86 | 1065.8 |
| 20260509022033 | 47 | 135 | 3.5 | 0.0 | 0.00 | 0.00 | 0.00 | 86 | 1065.8 |
| 20260509021912 | 47 | 135 | 1.7 | 0.0 | 0.00 | 0.00 | 0.00 | 86 | 1065.8 |
| 20260509021759 | 47 | 157 | 4.3 | 0.0 | 0.00 | 0.00 | 0.00 | 86 | 1065.9 |
| 20260509021638 | 47 | 135 | 2.6 | 0.0 | 0.00 | 0.00 | 0.00 | 86 | 1065.9 |
| 20260509021527 | 47 | 135 | 5.2 | 0.0 | 0.00 | 0.00 | 0.00 | 86 | 1065.8 |
| 20260509021419 | 47 | 157 | 5.2 | 0.0 | 0.00 | 0.00 | 0.00 | 86 | 1065.8 |
| 20260509021306 | 46 | 157 | 3.5 | 0.0 | 0.00 | 0.00 | 0.00 | 86 | 1065.8 |
| 20260509021145 | 46 | 135 | 4.3 | 0.0 | 0.00 | 0.00 | 0.00 | 86 | 1065.8 |
| 20260509021035 | 46 | 157 | 1.7 | 0.0 | 0.00 | 0.00 | 0.00 | 86 | 1065.8 |
| 20260509020927 | 47 | 135 | 0.9 | 0.0 | 0.00 | 0.00 | 0.00 | 86 | 1065.8 |
| 20260509020814 | 46 | 157 | 1.7 | 0.0 | 0.00 | 0.00 | 0.00 | 86 | 1065.9 |
| 20260509020701 | 46 | 157 | 3.5 | 0.0 | 0.00 | 0.00 | 0.00 | 86 | 1065.8 |
| 20260509020556 | 46 | 135 | 1.7 | 0.0 | 0.00 | 0.00 | 0.00 | 86 | 1065.8 |
| 20260509020445 | 46 | 135 | 0.9 | 0.0 | 0.00 | 0.00 | 0.00 | 86 | 1065.8 |
| 20260509020338 | 46 | 135 | 4.3 | 0.0 | 0.00 | 0.00 | 0.00 | 86 | 1065.9 |
| 20260509020224 | 47 | 135 | 1.7 | 0.0 | 0.00 | 0.00 | 0.00 | 86 | 1065.9 |
| 20260509020112 | 47 | 135 | 0.0 | 0.0 | 0.00 | 0.00 | 0.00 | 86 | 1065.9 |
| 20260509015952 | 47 | 112 | 0.0 | 0.0 | 0.00 | 0.00 | 0.00 | 86 | 1065.9 |
| 20260509015846 | 46 | 135 | 0.0 | 0.0 | 0.00 | 0.00 | 0.00 | 86 | 1065.9 |
| 20260509015734 | 46 | 135 | 0.0 | 0.0 | 0.00 | 0.00 | 0.00 | 86 | 1065.9 |
| 20260509015627 | 46 | 135 | 3.5 | 0.0 | 0.00 | 0.00 | 0.00 | 86 | 1065.9 |
| 20260509015514 | 46 | 135 | 0.9 | 0.0 | 0.00 | 0.00 | 0.00 | 86 | 1065.9 |
| 20260509015401 | 46 | 135 | 4.3 | 0.0 | 0.00 | 0.00 | 0.00 | 86 | 1065.9 |
| 20260509015256 | 46 | 135 | 1.7 | 0.0 | 0.00 | 0.00 | 0.00 | 86 | 1065.9 |
| 20260509015135 | 46 | 135 | 0.0 | 0.0 | 0.00 | 0.00 | 0.00 | 86 | 1065.9 |
| 20260509015022 | 46 | 135 | 0.0 | 0.0 | 0.00 | 0.00 | 0.00 | 86 | 1065.9 |
| 20260509014919 | 46 | 135 | 0.0 | 0.0 | 0.00 | 0.00 | 0.00 | 86 | 1065.9 |
| 20260509014812 | 46 | 157 | 3.5 | 0.0 | 0.00 | 0.00 | 0.00 | 86 | 1065.9 |
| 20260509014659 | 46 | 135 | 2.6 | 0.0 | 0.00 | 0.00 | 0.00 | 86 | 1065.9 |
| 20260509014546 | 46 | 135 | 2.6 | 0.0 | 0.00 | 0.00 | 0.00 | 86 | 1065.8 |
| 20260509014433 | 46 | 135 | 1.7 | 0.0 | 0.00 | 0.00 | 0.00 | 86 | 1065.9 |
| 20260509014327 | 46 | 135 | 0.0 | 0.0 | 0.00 | 0.00 | 0.00 | 86 | 1065.9 |
| 20260509014206 | 46 | 157 | 3.5 | 0.0 | 0.00 | 0.00 | 0.00 | 86 | 1065.9 |
| 20260509014053 | 46 | 135 | 3.5 | 0.0 | 0.00 | 0.00 | 0.00 | 86 | 1065.8 |
| 20260509013940 | 46 | 157 | 4.3 | 0.0 | 0.00 | 0.00 | 0.00 | 86 | 1065.8 |
| 20260509013827 | 46 | 135 | 3.5 | 0.0 | 0.00 | 0.00 | 0.00 | 86 | 1065.9 |
| 20260509013722 | 46 | 157 | 0.9 | 0.0 | 0.00 | 0.00 | 0.00 | 86 | 1065.9 |
| 20260509013617 | 46 | 157 | 2.6 | 0.0 | 0.00 | 0.00 | 0.00 | 86 | 1065.9 |
| 20260509013512 | 46 | 157 | 0.0 | 0.0 | 0.00 | 0.00 | 0.00 | 85 | 1065.8 |
| 20260509013406 | 46 | 135 | 2.6 | 0.0 | 0.00 | 0.00 | 0.00 | 85 | 1065.8 |
| 20260509013247 | 46 | 157 | 0.0 | 0.0 | 0.00 | 0.00 | 0.00 | 85 | 1065.8 |
| 20260509013132 | 46 | 157 | 0.0 | 0.0 | 0.00 | 0.00 | 0.00 | 85 | 1065.8 |
| 20260509013019 | 46 | 157 | 0.0 | 0.0 | 0.00 | 0.00 | 0.00 | 85 | 1065.8 |
| 20260509012915 | 46 | 157 | 0.0 | 0.0 | 0.00 | 0.00 | 0.00 | 85 | 1065.7 |
| 20260509012809 | 46 | 157 | 2.6 | 0.0 | 0.00 | 0.00 | 0.00 | 85 | 1065.6 |
| 20260509012648 | 46 | 157 | 0.0 | 0.0 | 0.00 | 0.00 | 0.00 | 85 | 1065.8 |
| 20260509012535 | 46 | 157 | 0.9 | 0.0 | 0.00 | 0.00 | 0.00 | 85 | 1065.8 |
| 20260509012422 | 46 | 135 | 0.0 | 0.0 | 0.00 | 0.00 | 0.00 | 85 | 1065.7 |
| 20260509012308 | 46 | 135 | 0.0 | 0.0 | 0.00 | 0.00 | 0.00 | 85 | 1065.7 |
| 20260509012155 | 46 | 135 | 0.0 | 0.0 | 0.00 | 0.00 | 0.00 | 85 | 1065.7 |
| 20260509012042 | 46 | 135 | 0.0 | 0.0 | 0.00 | 0.00 | 0.00 | 85 | 1065.7 |
| 20260509011929 | 46 | 135 | 0.0 | 0.0 | 0.00 | 0.00 | 0.00 | 85 | 1065.6 |
| 20260509011825 | 46 | 135 | 0.0 | 0.0 | 0.00 | 0.00 | 0.00 | 85 | 1065.7 |
| 20260509011720 | 46 | 135 | 1.7 | 0.0 | 0.00 | 0.00 | 0.00 | 85 | 1065.8 |
| 20260509011614 | 46 | 135 | 0.0 | 0.0 | 0.00 | 0.00 | 0.00 | 85 | 1065.6 |
| 20260509011510 | 46 | 135 | 2.6 | 0.0 | 0.00 | 0.00 | 0.00 | 85 | 1065.7 |
| 20260509011407 | 46 | 157 | 0.9 | 0.0 | 0.00 | 0.00 | 0.00 | 85 | 1065.7 |
| 20260509011259 | 46 | 157 | 0.0 | 0.0 | 0.00 | 0.00 | 0.00 | 85 | 1065.7 |
| 20260509011137 | 46 | 157 | 0.0 | 0.0 | 0.00 | 0.00 | 0.00 | 85 | 1065.8 |
| 20260509011017 | 46 | 157 | 0.0 | 0.0 | 0.00 | 0.00 | 0.00 | 85 | 1065.8 |
| 20260509010905 | 46 | 135 | 0.0 | 0.0 | 0.00 | 0.00 | 0.00 | 85 | 1065.8 |
| 20260509010801 | 46 | 135 | 0.0 | 0.0 | 0.00 | 0.00 | 0.00 | 85 | 1065.8 |
| 20260509010647 | 46 | 135 | 0.0 | 0.0 | 0.00 | 0.00 | 0.00 | 85 | 1065.8 |
| 20260509010533 | 46 | 135 | 0.0 | 0.0 | 0.00 | 0.00 | 0.00 | 85 | 1065.7 |
| 20260509010428 | 46 | 157 | 1.7 | 0.0 | 0.00 | 0.00 | 0.00 | 85 | 1065.8 |
| 20260509010314 | 46 | 157 | 2.6 | 0.0 | 0.00 | 0.00 | 0.00 | 85 | 1065.9 |
| 20260509005918 | 46 | 135 | 1.7 | 0.0 | 0.00 | 0.00 | 0.00 | 85 | 1065.9 |
| 20260509005801 | 46 | 157 | 4.3 | 0.0 | 0.00 | 0.00 | 0.00 | 85 | 1065.8 |
| 20260509005645 | 46 | 135 | 1.7 | 0.0 | 0.00 | 0.00 | 0.00 | 85 | 1065.8 |
| 20260509005539 | 46 | 135 | 4.3 | 0.0 | 0.00 | 0.00 | 0.00 | 85 | 1065.8 |
| 20260509005434 | 46 | 135 | 3.5 | 0.0 | 0.00 | 0.00 | 0.00 | 84 | 1065.8 |
| 20260509005306 | 46 | 135 | 3.5 | 0.0 | 0.00 | 0.00 | 0.00 | 84 | 1065.8 |
| 20260509005152 | 46 | 135 | 2.6 | 0.0 | 0.00 | 0.00 | 0.00 | 84 | 1065.8 |
| 20260509005047 | 46 | 135 | 3.5 | 0.0 | 0.00 | 0.00 | 0.00 | 84 | 1065.9 |
| 20260509004942 | 46 | 135 | 0.0 | 0.0 | 0.00 | 0.00 | 0.00 | 84 | 1065.7 |
| 20260509004837 | 46 | 135 | 0.0 | 0.0 | 0.00 | 0.00 | 0.00 | 84 | 1065.8 |
| 20260509004732 | 46 | 135 | 0.0 | 0.0 | 0.00 | 0.00 | 0.00 | 84 | 1065.7 |
| 20260509004627 | 46 | 135 | 0.0 | 0.0 | 0.00 | 0.00 | 0.00 | 84 | 1065.7 |
| 20260509004522 | 46 | 135 | 0.0 | 0.0 | 0.00 | 0.00 | 0.00 | 84 | 1065.8 |
| 20260509004416 | 46 | 135 | 0.0 | 0.0 | 0.00 | 0.00 | 0.00 | 84 | 1065.7 |
| 20260509004303 | 46 | 135 | 0.9 | 0.0 | 0.00 | 0.00 | 0.00 | 84 | 1065.6 |
| 20260509004151 | 46 | 135 | 0.0 | 0.0 | 0.00 | 0.00 | 0.00 | 84 | 1065.5 |
| 20260509004047 | 46 | 135 | 0.0 | 0.0 | 0.00 | 0.00 | 0.00 | 83 | 1065.6 |
| 20260509003939 | 46 | 135 | 0.0 | 0.0 | 0.00 | 0.00 | 0.00 | 83 | 1065.6 |
| 20260509003818 | 46 | 135 | 0.0 | 0.0 | 0.00 | 0.00 | 0.00 | 83 | 1065.5 |
| 20260509003713 | 46 | 135 | 0.0 | 0.0 | 0.00 | 0.00 | 0.00 | 83 | 1065.6 |
| 20260509003606 | 46 | 135 | 0.0 | 0.0 | 0.00 | 0.00 | 0.00 | 83 | 1065.6 |
| 20260509003500 | 46 | 135 | 0.9 | 0.0 | 0.00 | 0.00 | 0.00 | 83 | 1065.6 |
| 20260509003345 | 46 | 135 | 3.5 | 0.0 | 0.00 | 0.00 | 0.00 | 83 | 1065.6 |
| 20260509003225 | 46 | 135 | 0.0 | 0.0 | 0.00 | 0.00 | 0.00 | 83 | 1065.6 |
| 20260509003120 | 46 | 157 | 0.0 | 0.0 | 0.00 | 0.00 | 0.00 | 83 | 1065.5 |
| 20260509003015 | 46 | 157 | 0.0 | 0.0 | 0.00 | 0.00 | 0.00 | 83 | 1065.6 |
| 20260509002902 | 46 | 135 | 0.0 | 0.0 | 0.00 | 0.00 | 0.00 | 83 | 1065.6 |
| 20260509002756 | 46 | 135 | 0.0 | 0.0 | 0.00 | 0.00 | 0.00 | 83 | 1065.6 |
| 20260509002651 | 46 | 135 | 1.7 | 0.0 | 0.00 | 0.00 | 0.00 | 83 | 1065.6 |
| 20260509002545 | 46 | 135 | 0.0 | 0.0 | 0.00 | 0.00 | 0.00 | 83 | 1065.6 |
| 20260509002440 | 46 | 135 | 0.0 | 0.0 | 0.00 | 0.00 | 0.00 | 83 | 1065.5 |
| 20260509002319 | 46 | 135 | 0.0 | 0.0 | 0.00 | 0.00 | 0.00 | 83 | 1065.5 |
| 20260509002207 | 46 | 135 | 1.7 | 0.0 | 0.00 | 0.00 | 0.00 | 82 | 1065.5 |
| 20260509002102 | 46 | 135 | 0.0 | 0.0 | 0.00 | 0.00 | 0.00 | 82 | 1065.5 |
| 20260509001955 | 46 | 135 | 0.0 | 0.0 | 0.00 | 0.00 | 0.00 | 82 | 1065.5 |
| 20260509001850 | 46 | 135 | 0.0 | 0.0 | 0.00 | 0.00 | 0.00 | 82 | 1065.6 |
| 20260509001728 | 46 | 135 | 0.0 | 0.0 | 0.00 | 0.00 | 0.00 | 82 | 1065.5 |
| 20260509001608 | 46 | 135 | 0.0 | 0.0 | 0.00 | 0.00 | 0.00 | 82 | 1065.5 |
| 20260509001455 | 46 | 135 | 0.0 | 0.0 | 0.00 | 0.00 | 0.00 | 82 | 1065.5 |
| 20260509001349 | 46 | 135 | 0.0 | 0.0 | 0.00 | 0.00 | 0.00 | 82 | 1065.5 |
| 20260509001244 | 46 | 135 | 0.0 | 0.0 | 0.00 | 0.00 | 0.00 | 82 | 1065.5 |
| 20260509001124 | 46 | 135 | 0.0 | 0.0 | 0.00 | 0.00 | 0.00 | 82 | 1065.5 |
| 20260509001018 | 46 | 135 | 1.7 | 0.0 | 0.00 | 0.00 | 0.00 | 82 | 1065.4 |
| 20260509000856 | 46 | 112 | 2.6 | 0.0 | 0.00 | 0.00 | 0.00 | 82 | 1065.5 |
| 20260509000736 | 46 | 135 | 0.0 | 0.0 | 0.00 | 0.00 | 0.00 | 82 | 1065.5 |
| 20260509000630 | 46 | 135 | 0.0 | 0.0 | 0.00 | 0.00 | 0.00 | 82 | 1065.5 |
| 20260509000518 | 46 | 135 | 2.6 | 0.0 | 0.00 | 0.00 | 0.00 | 82 | 1065.5 |
| 20260509000403 | 46 | 135 | 0.9 | 0.0 | 0.00 | 0.00 | 0.00 | 82 | 1065.5 |
| 20260509000243 | 46 | 135 | 2.6 | 0.0 | 0.00 | 0.00 | 0.00 | 82 | 1065.5 |
| 20260509000130 | 46 | 135 | 1.7 | 0.0 | 0.00 | 0.00 | 0.00 | 82 | 1065.5 |
| 20260509000017 | 46 | 135 | 1.7 | 0.0 | 0.00 | 0.00 | 0.00 | 82 | 1065.5 |
| 20260508235912 | 46 | 135 | 2.6 | 0.0 | 0.00 | 0.00 | 0.00 | 82 | 1065.4 |
| 20260508235807 | 46 | 112 | 3.5 | 0.0 | 0.00 | 0.00 | 0.00 | 82 | 1065.5 |
| 20260508235702 | 46 | 135 | 5.2 | 0.0 | 0.00 | 0.00 | 0.00 | 82 | 1065.5 |
| 20260508235550 | 46 | 135 | 1.7 | 0.0 | 0.00 | 0.00 | 0.00 | 82 | 1065.5 |
| 20260508235443 | 46 | 135 | 2.6 | 0.0 | 0.00 | 0.00 | 0.00 | 82 | 1065.5 |
| 20260508235330 | 46 | 135 | 2.6 | 0.0 | 0.00 | 0.00 | 0.00 | 82 | 1065.5 |
| 20260508235154 | 46 | 135 | 4.3 | 0.0 | 0.00 | 0.00 | 0.00 | 82 | 1065.5 |
| 20260508235040 | 46 | 135 | 4.3 | 0.0 | 0.00 | 0.00 | 0.00 | 82 | 1065.5 |
| 20260508234927 | 46 | 135 | 3.5 | 0.0 | 0.00 | 0.00 | 0.00 | 82 | 1065.5 |
| 20260508234821 | 46 | 112 | 0.9 | 0.0 | 0.00 | 0.00 | 0.00 | 82 | 1065.5 |
| 20260508234652 | 46 | 112 | 4.3 | 0.0 | 0.00 | 0.00 | 0.00 | 82 | 1065.5 |
| 20260508234540 | 46 | 112 | 0.0 | 0.0 | 0.00 | 0.00 | 0.00 | 82 | 1065.6 |
| 20260508234419 | 46 | 112 | 1.7 | 0.0 | 0.00 | 0.00 | 0.00 | 82 | 1065.5 |
| 20260508234305 | 46 | 112 | 3.5 | 0.0 | 0.00 | 0.00 | 0.00 | 82 | 1065.7 |
| 20260508234152 | 46 | 135 | 0.9 | 0.0 | 0.00 | 0.00 | 0.00 | 82 | 1065.6 |
| 20260508234047 | 46 | 135 | 1.7 | 0.0 | 0.00 | 0.00 | 0.00 | 82 | 1065.6 |
| 20260508233942 | 46 | 112 | 3.5 | 0.0 | 0.00 | 0.00 | 0.00 | 82 | 1065.5 |
| 20260508233836 | 46 | 135 | 3.5 | 0.0 | 0.00 | 0.00 | 0.00 | 81 | 1065.5 |
| 20260508233707 | 46 | 135 | 4.3 | 0.0 | 0.00 | 0.00 | 0.00 | 81 | 1065.6 |
| 20260508233546 | 46 | 135 | 3.5 | 0.0 | 0.00 | 0.00 | 0.00 | 81 | 1065.5 |
| 20260508233426 | 46 | 112 | 0.0 | 0.0 | 0.00 | 0.00 | 0.00 | 81 | 1065.5 |
| 20260508233320 | 46 | 112 | 2.6 | 0.0 | 0.00 | 0.00 | 0.00 | 81 | 1065.5 |
| 20260508233207 | 46 | 112 | 2.6 | 0.0 | 0.00 | 0.00 | 0.00 | 80 | 1065.6 |
| 20260508233055 | 47 | 90 | 0.0 | 0.0 | 0.00 | 0.00 | 0.00 | 80 | 1065.6 |
| 20260508232932 | 47 | 90 | 0.0 | 0.0 | 0.00 | 0.00 | 0.00 | 80 | 1065.6 |
| 20260508232820 | 47 | 90 | 0.9 | 0.0 | 0.00 | 0.00 | 0.00 | 80 | 1065.6 |
| 20260508232658 | 47 | 112 | 0.0 | 0.0 | 0.00 | 0.00 | 0.00 | 80 | 1065.6 |
| 20260508232535 | 47 | 112 | 0.0 | 0.0 | 0.00 | 0.00 | 0.00 | 80 | 1065.6 |
| 20260508232417 | 47 | 112 | 0.0 | 0.0 | 0.00 | 0.00 | 0.00 | 79 | 1065.6 |
| 20260508232312 | 48 | 67 | 0.0 | 0.0 | 0.00 | 0.00 | 0.00 | 79 | 1065.6 |
| 20260508232157 | 48 | 67 | 0.0 | 0.0 | 0.00 | 0.00 | 0.00 | 80 | 1065.7 |
| 20260508232037 | 48 | 67 | 0.0 | 0.0 | 0.00 | 0.00 | 0.00 | 80 | 1065.7 |
| 20260508231933 | 48 | 67 | 0.0 | 0.0 | 0.00 | 0.00 | 0.00 | 80 | 1065.8 |
| 20260508231827 | 48 | 112 | 0.0 | 0.0 | 0.00 | 0.00 | 0.00 | 80 | 1065.7 |
| 20260508231723 | 48 | 112 | 0.0 | 0.0 | 0.00 | 0.00 | 0.00 | 80 | 1065.7 |
| 20260508231618 | 48 | 112 | 0.0 | 0.0 | 0.00 | 0.00 | 0.00 | 80 | 1065.7 |
| 20260508231504 | 48 | 112 | 1.7 | 0.0 | 0.00 | 0.00 | 0.00 | 79 | 1065.7 |
| 20260508231350 | 48 | 67 | 3.5 | 0.0 | 0.00 | 0.00 | 0.00 | 79 | 1065.6 |
| 20260508231237 | 48 | 90 | 3.5 | 0.0 | 0.00 | 0.00 | 0.00 | 79 | 1065.6 |
| 20260508231115 | 48 | 112 | 2.6 | 0.0 | 0.00 | 0.00 | 0.00 | 79 | 1065.6 |
| 20260508230955 | 48 | 112 | 1.7 | 0.0 | 0.00 | 0.00 | 0.00 | 79 | 1065.6 |
| 20260508230849 | 48 | 135 | 3.5 | 0.0 | 0.00 | 0.00 | 0.00 | 79 | 1065.6 |
| 20260508230729 | 48 | 112 | 1.7 | 0.0 | 0.00 | 0.00 | 0.00 | 79 | 1065.6 |
| 20260508230617 | 48 | 135 | 4.3 | 0.0 | 0.00 | 0.00 | 0.00 | 79 | 1065.6 |
| 20260508230502 | 48 | 135 | 2.6 | 0.0 | 0.00 | 0.00 | 0.00 | 79 | 1065.6 |
| 20260508230349 | 48 | 135 | 3.5 | 0.0 | 0.00 | 0.00 | 0.00 | 79 | 1065.6 |
| 20260508230230 | 48 | 135 | 3.5 | 0.0 | 0.00 | 0.00 | 0.00 | 79 | 1065.6 |
| 20260508230126 | 48 | 135 | 0.9 | 0.0 | 0.00 | 0.00 | 0.00 | 79 | 1065.6 |
| 20260508230017 | 48 | 135 | 2.6 | 0.0 | 0.00 | 0.00 | 0.00 | 79 | 1065.5 |
| 20260508225904 | 48 | 135 | 3.5 | 0.0 | 0.00 | 0.00 | 0.00 | 79 | 1065.5 |
| 20260508225754 | 48 | 135 | 4.3 | 0.0 | 0.00 | 0.00 | 0.00 | 80 | 1065.6 |
| 20260508225639 | 48 | 135 | 5.2 | 0.0 | 0.00 | 0.00 | 0.00 | 80 | 1065.5 |
| 20260508225534 | 48 | 135 | 1.7 | 0.0 | 0.00 | 0.00 | 0.00 | 80 | 1065.5 |
| 20260508225431 | 48 | 135 | 1.7 | 0.0 | 0.00 | 0.00 | 0.00 | 80 | 1065.6 |
| 20260508225325 | 48 | 135 | 1.7 | 0.0 | 0.00 | 0.00 | 0.00 | 80 | 1065.5 |
| 20260508225218 | 48 | 135 | 2.6 | 0.0 | 0.00 | 0.00 | 0.00 | 81 | 1065.6 |
| 20260508225057 | 48 | 112 | 1.7 | 0.0 | 0.00 | 0.00 | 0.00 | 81 | 1065.5 |
| 20260508224935 | 48 | 135 | 3.5 | 0.0 | 0.00 | 0.00 | 0.00 | 81 | 1065.5 |
| 20260508224814 | 48 | 112 | 4.3 | 0.0 | 0.00 | 0.00 | 0.00 | 81 | 1065.5 |
| 20260508224702 | 48 | 112 | 2.6 | 0.0 | 0.00 | 0.00 | 0.00 | 81 | 1065.5 |
| 20260508224557 | 48 | 135 | 4.3 | 0.0 | 0.00 | 0.00 | 0.00 | 81 | 1065.5 |
| 20260508224443 | 48 | 135 | 3.5 | 0.0 | 0.00 | 0.00 | 0.00 | 81 | 1065.5 |
| 20260508224322 | 48 | 135 | 4.3 | 0.0 | 0.00 | 0.00 | 0.00 | 81 | 1065.6 |
| 20260508224217 | 48 | 135 | 0.0 | 0.0 | 0.00 | 0.00 | 0.00 | 81 | 1065.5 |
| 20260508224058 | 48 | 135 | 0.0 | 0.0 | 0.00 | 0.00 | 0.00 | 81 | 1065.5 |
| 20260508223951 | 48 | 135 | 2.6 | 0.0 | 0.00 | 0.00 | 0.00 | 81 | 1065.6 |
| 20260508223837 | 48 | 135 | 1.7 | 0.0 | 0.00 | 0.00 | 0.00 | 81 | 1065.6 |
| 20260508223726 | 48 | 135 | 3.5 | 0.0 | 0.00 | 0.00 | 0.00 | 81 | 1065.6 |
| 20260508223619 | 48 | 157 | 2.6 | 0.0 | 0.00 | 0.00 | 0.00 | 80 | 1065.6 |
| 20260508223458 | 48 | 135 | 0.0 | 0.0 | 0.00 | 0.00 | 0.00 | 80 | 1065.6 |
| 20260508223329 | 48 | 135 | 0.0 | 0.0 | 0.00 | 0.00 | 0.00 | 80 | 1065.6 |
| 20260508223216 | 48 | 112 | 0.0 | 0.0 | 0.00 | 0.00 | 0.00 | 80 | 1065.6 |
| 20260508223054 | 48 | 112 | 0.0 | 0.0 | 0.00 | 0.00 | 0.00 | 80 | 1065.6 |
| 20260508222925 | 48 | 112 | 0.0 | 0.0 | 0.00 | 0.00 | 0.00 | 80 | 1065.6 |
| 20260508222812 | 48 | 112 | 0.0 | 0.0 | 0.00 | 0.00 | 0.00 | 80 | 1065.6 |
| 20260508222650 | 48 | 112 | 0.0 | 0.0 | 0.00 | 0.00 | 0.00 | 80 | 1065.6 |
| 20260508222529 | 48 | 112 | 0.0 | 0.0 | 0.00 | 0.00 | 0.00 | 80 | 1065.6 |
| 20260508222408 | 48 | 112 | 0.0 | 0.0 | 0.00 | 0.00 | 0.00 | 80 | 1065.6 |
| 20260508222258 | 48 | 112 | 0.0 | 0.0 | 0.00 | 0.00 | 0.00 | 79 | 1065.6 |
| 20260508222149 | 48 | 112 | 0.0 | 0.0 | 0.00 | 0.00 | 0.00 | 79 | 1065.6 |
| 20260508222031 | 48 | 90 | 0.0 | 0.0 | 0.00 | 0.00 | 0.00 | 79 | 1065.6 |
| 20260508221924 | 48 | 90 | 0.0 | 0.0 | 0.00 | 0.00 | 0.00 | 79 | 1065.6 |
| 20260508221810 | 48 | 90 | 0.0 | 0.0 | 0.00 | 0.00 | 0.00 | 79 | 1065.7 |
| 20260508221649 | 48 | 90 | 0.0 | 0.0 | 0.00 | 0.00 | 0.00 | 79 | 1065.7 |
| 20260508221521 | 48 | 90 | 0.0 | 0.0 | 0.00 | 0.00 | 0.00 | 79 | 1065.7 |
| 20260508221415 | 48 | 90 | 0.0 | 0.0 | 0.00 | 0.00 | 0.00 | 79 | 1065.6 |
| 20260508221302 | 48 | 90 | 1.7 | 0.0 | 0.00 | 0.00 | 0.00 | 79 | 1065.6 |
| 20260508221140 | 48 | 90 | 3.5 | 0.0 | 0.00 | 0.00 | 0.00 | 79 | 1065.6 |
| 20260508221019 | 48 | 90 | 2.6 | 0.0 | 0.00 | 0.00 | 0.00 | 79 | 1065.6 |
| 20260508220850 | 49 | 90 | 0.0 | 0.0 | 0.00 | 0.00 | 0.00 | 78 | 1065.6 |
| 20260508220738 | 49 | 112 | 0.0 | 0.0 | 0.00 | 0.00 | 0.00 | 78 | 1065.5 |
| 20260508220633 | 49 | 90 | 0.0 | 0.0 | 0.00 | 0.00 | 0.00 | 78 | 1065.6 |
| 20260508220527 | 49 | 90 | 0.0 | 0.0 | 0.00 | 0.00 | 0.00 | 78 | 1065.6 |
| 20260508220405 | 49 | 90 | 0.0 | 0.0 | 0.00 | 0.00 | 0.00 | 77 | 1065.6 |
| 20260508220251 | 49 | 90 | 0.0 | 0.0 | 0.00 | 0.00 | 0.00 | 77 | 1065.6 |
| 20260508220130 | 49 | 90 | 0.0 | 0.0 | 0.00 | 0.00 | 0.00 | 77 | 1065.6 |
| 20260508220022 | 49 | 112 | 1.7 | 0.0 | 0.00 | 0.00 | 0.00 | 77 | 1065.6 |
| 20260508215900 | 49 | 90 | 3.5 | 0.0 | 0.00 | 0.00 | 0.00 | 77 | 1065.6 |
| 20260508215746 | 49 | 90 | 3.5 | 0.0 | 0.00 | 0.00 | 0.00 | 77 | 1065.6 |
| 20260508215641 | 49 | 67 | 0.0 | 0.0 | 0.00 | 0.00 | 0.00 | 77 | 1065.6 |
| 20260508215535 | 49 | 90 | 0.0 | 0.0 | 0.00 | 0.00 | 0.00 | 77 | 1065.6 |
| 20260508215419 | 49 | 90 | 1.7 | 0.0 | 0.00 | 0.00 | 0.00 | 77 | 1065.6 |
| 20260508215259 | 49 | 67 | 2.6 | 0.0 | 0.00 | 0.00 | 0.00 | 77 | 1065.6 |
| 20260508215150 | 49 | 90 | 2.6 | 0.0 | 0.00 | 0.00 | 0.00 | 77 | 1065.6 |
| 20260508215029 | 49 | 90 | 3.5 | 0.0 | 0.00 | 0.00 | 0.00 | 76 | 1065.6 |
| 20260508214917 | 49 | 90 | 3.5 | 0.0 | 0.00 | 0.00 | 0.00 | 76 | 1065.6 |
| 20260508214808 | 49 | 112 | 3.5 | 0.0 | 0.00 | 0.00 | 0.00 | 76 | 1065.6 |
| 20260508214656 | 49 | 90 | 2.6 | 0.0 | 0.00 | 0.00 | 0.00 | 76 | 1065.5 |
| 20260508214548 | 49 | 112 | 4.3 | 0.0 | 0.00 | 0.00 | 0.00 | 76 | 1065.6 |
| 20260508214435 | 49 | 90 | 2.6 | 0.0 | 0.00 | 0.00 | 0.00 | 76 | 1065.6 |
| 20260508214329 | 49 | 112 | 2.6 | 0.0 | 0.00 | 0.00 | 0.00 | 76 | 1065.5 |
| 20260508214210 | 49 | 90 | 0.0 | 0.0 | 0.00 | 0.00 | 0.00 | 76 | 1065.6 |
| 20260508214055 | 49 | 90 | 0.0 | 0.0 | 0.00 | 0.00 | 0.00 | 76 | 1065.6 |
| 20260508213942 | 49 | 90 | 5.2 | 0.0 | 0.00 | 0.00 | 0.00 | 76 | 1065.6 |
| 20260508213837 | 49 | 90 | 4.3 | 0.0 | 0.00 | 0.00 | 0.00 | 76 | 1065.6 |
| 20260508213724 | 49 | 90 | 3.5 | 0.0 | 0.00 | 0.00 | 0.00 | 76 | 1065.6 |
| 20260508213610 | 49 | 112 | 5.2 | 0.0 | 0.00 | 0.00 | 0.00 | 76 | 1065.6 |
| 20260508213448 | 49 | 112 | 3.5 | 0.0 | 0.00 | 0.00 | 0.00 | 76 | 1065.6 |
| 20260508213334 | 49 | 112 | 4.3 | 0.0 | 0.00 | 0.00 | 0.00 | 76 | 1065.6 |
| 20260508213212 | 49 | 90 | 5.2 | 0.0 | 0.00 | 0.00 | 0.00 | 76 | 1065.7 |
| 20260508213058 | 49 | 90 | 3.5 | 0.0 | 0.00 | 0.00 | 0.00 | 76 | 1065.7 |
| 20260508212952 | 49 | 90 | 4.3 | 0.0 | 0.00 | 0.00 | 0.00 | 76 | 1065.7 |
| 20260508212846 | 49 | 90 | 2.6 | 0.0 | 0.00 | 0.00 | 0.00 | 77 | 1065.6 |
| 20260508212734 | 49 | 90 | 1.7 | 0.0 | 0.00 | 0.00 | 0.00 | 77 | 1065.6 |
| 20260508212625 | 49 | 112 | 1.7 | 0.0 | 0.00 | 0.00 | 0.00 | 77 | 1065.7 |
| 20260508212503 | 49 | 90 | 3.5 | 0.0 | 0.00 | 0.00 | 0.00 | 77 | 1065.7 |
| 20260508212349 | 49 | 90 | 3.5 | 0.0 | 0.00 | 0.00 | 0.00 | 77 | 1065.7 |
| 20260508212243 | 49 | 90 | 3.5 | 0.0 | 0.00 | 0.00 | 0.00 | 77 | 1065.7 |
| 20260508212136 | 49 | 90 | 4.3 | 0.0 | 0.00 | 0.00 | 0.00 | 77 | 1065.8 |
| 20260508212006 | 49 | 90 | 4.3 | 0.0 | 0.00 | 0.00 | 0.00 | 77 | 1065.7 |
| 20260508211852 | 49 | 90 | 3.5 | 0.0 | 0.00 | 0.00 | 0.00 | 77 | 1065.7 |
| 20260508211746 | 49 | 90 | 3.5 | 0.0 | 0.00 | 0.00 | 0.00 | 77 | 1065.8 |
| 20260508211639 | 49 | 67 | 2.6 | 0.0 | 0.00 | 0.00 | 0.00 | 77 | 1065.8 |
| 20260508211511 | 49 | 67 | 0.0 | 0.0 | 0.00 | 0.00 | 0.00 | 77 | 1065.8 |
| 20260508211405 | 49 | 90 | 3.5 | 0.0 | 0.00 | 0.00 | 0.00 | 77 | 1065.8 |
| 20260508211258 | 49 | 90 | 4.3 | 0.0 | 0.00 | 0.00 | 0.00 | 77 | 1065.8 |
| 20260508211151 | 49 | 90 | 4.3 | 0.0 | 0.00 | 0.00 | 0.00 | 77 | 1065.8 |
| 20260508211037 | 49 | 90 | 4.3 | 0.0 | 0.00 | 0.00 | 0.00 | 77 | 1065.8 |
| 20260508210922 | 48 | 90 | 2.6 | 0.0 | 0.00 | 0.00 | 0.00 | 77 | 1065.8 |
| 20260508210803 | 48 | 90 | 4.3 | 0.0 | 0.00 | 0.00 | 0.00 | 77 | 1065.8 |
| 20260508210654 | 48 | 90 | 3.5 | 0.0 | 0.00 | 0.00 | 0.00 | 77 | 1065.8 |
| 20260508210540 | 48 | 90 | 2.6 | 0.0 | 0.00 | 0.00 | 0.00 | 77 | 1065.8 |
| 20260508210435 | 48 | 112 | 1.7 | 0.0 | 0.00 | 0.00 | 0.00 | 77 | 1065.8 |
| 20260508210328 | 48 | 112 | 1.7 | 0.0 | 0.00 | 0.00 | 0.00 | 77 | 1065.8 |
| 20260508210222 | 48 | 90 | 0.0 | 0.0 | 0.00 | 0.00 | 0.00 | 77 | 1065.7 |
| 20260508210116 | 48 | 90 | 0.0 | 0.0 | 0.00 | 0.00 | 0.00 | 77 | 1065.7 |
| 20260508210010 | 48 | 90 | 3.5 | 0.0 | 0.00 | 0.00 | 0.00 | 77 | 1065.7 |
| 20260508205904 | 49 | 67 | 1.7 | 0.0 | 0.00 | 0.00 | 0.00 | 76 | 1065.7 |
| 20260508205741 | 49 | 90 | 0.0 | 0.0 | 0.00 | 0.00 | 0.00 | 76 | 1065.7 |
| 20260508205620 | 49 | 90 | 0.0 | 0.0 | 0.00 | 0.00 | 0.00 | 76 | 1065.7 |
| 20260508205513 | 49 | 90 | 1.7 | 0.0 | 0.00 | 0.00 | 0.00 | 76 | 1065.7 |
| 20260508205352 | 49 | 90 | 0.0 | 0.0 | 0.00 | 0.00 | 0.00 | 76 | 1065.7 |
| 20260508205236 | 49 | 90 | 0.0 | 0.0 | 0.00 | 0.00 | 0.00 | 76 | 1065.8 |
| 20260508205121 | 49 | 90 | 0.0 | 0.0 | 0.00 | 0.00 | 0.00 | 76 | 1065.7 |
| 20260508205000 | 49 | 90 | 0.0 | 0.0 | 0.00 | 0.00 | 0.00 | 76 | 1065.7 |
| 20260508204845 | 49 | 90 | 0.0 | 0.0 | 0.00 | 0.00 | 0.00 | 76 | 1065.7 |
| 20260508204732 | 49 | 112 | 1.7 | 0.0 | 0.00 | 0.00 | 0.00 | 75 | 1065.7 |
| 20260508204626 | 49 | 112 | 0.0 | 0.0 | 0.00 | 0.00 | 0.00 | 75 | 1065.6 |
| 20260508204459 | 49 | 67 | 0.0 | 0.0 | 0.00 | 0.00 | 0.00 | 76 | 1065.7 |
| 20260508204350 | 49 | 67 | 0.0 | 0.0 | 0.00 | 0.00 | 0.00 | 75 | 1065.7 |
| 20260508204229 | 49 | 67 | 0.0 | 0.0 | 0.00 | 0.00 | 0.00 | 76 | 1065.8 |
| 20260508204114 | 49 | 67 | 0.0 | 0.0 | 0.00 | 0.00 | 0.00 | 75 | 1065.8 |
| 20260508204000 | 49 | 67 | 0.0 | 0.0 | 0.00 | 0.00 | 0.00 | 75 | 1065.8 |
| 20260508203831 | 49 | 45 | 0.0 | 0.0 | 0.00 | 0.00 | 0.00 | 75 | 1065.8 |
| 20260508203718 | 50 | 90 | 0.0 | 0.0 | 0.00 | 0.00 | 0.00 | 75 | 1065.8 |
| 20260508203605 | 50 | 45 | 0.0 | 0.0 | 0.00 | 0.00 | 0.00 | 75 | 1065.8 |
| 20260508203500 | 50 | 45 | 0.0 | 0.0 | 0.00 | 0.00 | 0.00 | 75 | 1065.8 |
| 20260508203340 | 50 | 45 | 0.0 | 0.0 | 0.00 | 0.00 | 0.00 | 75 | 1065.8 |
| 20260508203235 | 50 | 45 | 0.0 | 0.0 | 0.00 | 0.00 | 0.00 | 75 | 1065.8 |
| 20260508203121 | 50 | 67 | 0.0 | 0.0 | 0.00 | 0.00 | 0.00 | 75 | 1065.7 |
| 20260508203008 | 50 | 67 | 0.0 | 0.0 | 0.00 | 0.00 | 0.00 | 75 | 1065.7 |
| 20260508202901 | 50 | 67 | 0.0 | 0.0 | 0.00 | 0.00 | 0.00 | 75 | 1065.7 |
| 20260508202744 | 50 | 67 | 0.0 | 0.0 | 0.00 | 0.00 | 0.00 | 75 | 1065.7 |
| 20260508202628 | 50 | 67 | 0.0 | 0.0 | 0.00 | 0.00 | 0.00 | 76 | 1065.7 |
| 20260508202515 | 50 | 90 | 2.6 | 0.0 | 0.00 | 0.00 | 0.00 | 76 | 1065.7 |
| 20260508202409 | 50 | 90 | 3.5 | 0.0 | 0.00 | 0.00 | 0.00 | 76 | 1065.7 |
| 20260508202241 | 50 | 45 | 0.0 | 0.0 | 0.00 | 0.00 | 0.00 | 76 | 1065.7 |
| 20260508202127 | 50 | 90 | 0.0 | 0.0 | 0.00 | 0.00 | 0.00 | 76 | 1065.7 |
| 20260508202006 | 50 | 112 | 3.5 | 0.0 | 0.00 | 0.00 | 0.00 | 76 | 1065.6 |
| 20260508201854 | 50 | 90 | 2.6 | 0.0 | 0.00 | 0.00 | 0.00 | 76 | 1065.6 |
| 20260508201748 | 50 | 90 | 0.0 | 0.0 | 0.00 | 0.00 | 0.00 | 76 | 1065.6 |
| 20260508201635 | 50 | 90 | 3.5 | 0.0 | 0.00 | 0.00 | 0.00 | 76 | 1065.6 |
| 20260508201530 | 50 | 90 | 0.0 | 0.0 | 0.00 | 0.00 | 0.00 | 76 | 1065.6 |
| 20260508201424 | 50 | 90 | 0.0 | 0.0 | 0.00 | 0.00 | 0.00 | 77 | 1065.6 |
| 20260508201318 | 50 | 67 | 0.9 | 0.0 | 0.00 | 0.00 | 0.00 | 77 | 1065.6 |
| 20260508201213 | 50 | 67 | 0.0 | 0.0 | 0.00 | 0.00 | 0.00 | 77 | 1065.5 |
| 20260508201107 | 50 | 67 | 3.5 | 0.0 | 0.00 | 0.00 | 0.00 | 77 | 1065.6 |
| 20260508201001 | 50 | 67 | 0.0 | 0.0 | 0.00 | 0.00 | 0.00 | 78 | 1065.6 |
| 20260508200854 | 50 | 90 | 2.6 | 0.0 | 0.00 | 0.00 | 0.00 | 78 | 1065.5 |
| 20260508200731 | 50 | 112 | 6.1 | 0.0 | 0.00 | 0.00 | 0.00 | 78 | 1065.5 |
| 20260508200611 | 50 | 67 | 4.3 | 0.0 | 0.00 | 0.00 | 0.00 | 78 | 1065.5 |
| 20260508200450 | 50 | 90 | 4.3 | 0.0 | 0.00 | 0.00 | 0.00 | 78 | 1065.5 |
| 20260508200345 | 50 | 90 | 1.7 | 0.0 | 0.00 | 0.00 | 0.00 | 78 | 1065.5 |
| 20260508200230 | 50 | 90 | 7.0 | 0.0 | 0.00 | 0.00 | 0.00 | 78 | 1065.5 |
| 20260508200121 | 50 | 67 | 5.2 | 0.0 | 0.00 | 0.00 | 0.00 | 78 | 1065.5 |
| 20260508200013 | 50 | 67 | 2.6 | 0.0 | 0.00 | 0.00 | 0.00 | 78 | 1065.5 |
| 20260508195900 | 50 | 67 | 0.0 | 0.0 | 0.00 | 0.00 | 0.00 | 78 | 1065.5 |
| 20260508195749 | 50 | 67 | 1.7 | 0.0 | 0.00 | 0.00 | 0.00 | 78 | 1065.5 |
| 20260508195642 | 50 | 67 | 3.5 | 0.0 | 0.00 | 0.00 | 0.00 | 78 | 1065.5 |
| 20260508195529 | 50 | 45 | 5.2 | 0.0 | 0.00 | 0.00 | 0.00 | 78 | 1065.5 |
| 20260508195416 | 50 | 45 | 3.5 | 0.0 | 0.00 | 0.00 | 0.00 | 78 | 1065.5 |
| 20260508195311 | 50 | 90 | 6.1 | 0.0 | 0.00 | 0.00 | 0.00 | 79 | 1065.5 |
| 20260508195158 | 50 | 67 | 0.0 | 0.0 | 0.00 | 0.00 | 0.00 | 79 | 1065.5 |
| 20260508195045 | 50 | 67 | 0.0 | 0.0 | 0.00 | 0.00 | 0.00 | 79 | 1065.5 |
| 20260508194934 | 50 | 90 | 0.0 | 0.0 | 0.00 | 0.00 | 0.00 | 79 | 1065.5 |
| 20260508194829 | 50 | 90 | 4.3 | 0.0 | 0.00 | 0.00 | 0.00 | 79 | 1065.5 |
| 20260508194721 | 51 | 90 | 0.0 | 0.0 | 0.00 | 0.00 | 0.00 | 79 | 1065.4 |
| 20260508194608 | 51 | 67 | 3.5 | 0.0 | 0.00 | 0.00 | 0.00 | 79 | 1065.4 |
| 20260508194442 | 51 | 67 | 2.6 | 0.0 | 0.00 | 0.00 | 0.00 | 79 | 1065.5 |
| 20260508194334 | 51 | 67 | 0.0 | 0.0 | 0.00 | 0.00 | 0.00 | 79 | 1065.4 |
| 20260508194222 | 51 | 90 | 5.2 | 0.0 | 0.00 | 0.00 | 0.00 | 79 | 1065.5 |
| 20260508194115 | 51 | 67 | 5.2 | 0.0 | 0.00 | 0.00 | 0.00 | 79 | 1065.4 |
| 20260508193955 | 51 | 90 | 6.1 | 0.0 | 0.00 | 0.00 | 0.00 | 79 | 1065.4 |
| 20260508193852 | 51 | 45 | 4.3 | 0.0 | 0.00 | 0.00 | 0.00 | 78 | 1065.4 |
| 20260508193745 | 51 | 90 | 1.7 | 0.0 | 0.00 | 0.00 | 0.00 | 78 | 1065.4 |
| 20260508193632 | 51 | 67 | 1.7 | 0.0 | 0.00 | 0.00 | 0.00 | 78 | 1065.3 |
| 20260508193519 | 51 | 112 | 6.1 | 0.0 | 0.00 | 0.00 | 0.00 | 78 | 1065.4 |
| 20260508193406 | 51 | 67 | 5.2 | 0.0 | 0.00 | 0.00 | 0.00 | 78 | 1065.4 |
| 20260508193252 | 51 | 67 | 1.7 | 0.0 | 0.00 | 0.00 | 0.00 | 77 | 1065.3 |
| 20260508193136 | 51 | 67 | 0.0 | 0.0 | 0.00 | 0.00 | 0.00 | 77 | 1065.2 |
| 20260508193021 | 51 | 90 | 0.0 | 0.0 | 0.00 | 0.00 | 0.00 | 77 | 1065.3 |
| 20260508192851 | 51 | 90 | 5.2 | 0.0 | 0.00 | 0.00 | 0.00 | 77 | 1065.2 |
| 20260508192737 | 51 | 90 | 0.0 | 0.0 | 0.00 | 0.00 | 0.00 | 76 | 1065.3 |
| 20260508192631 | 51 | 90 | 1.7 | 0.0 | 0.00 | 0.00 | 0.00 | 76 | 1065.3 |
| 20260508192523 | 51 | 90 | 5.2 | 0.0 | 0.00 | 0.00 | 0.00 | 76 | 1065.3 |
| 20260508192403 | 51 | 90 | 0.0 | 0.0 | 0.00 | 0.00 | 0.00 | 75 | 1065.2 |
| 20260508192242 | 52 | 90 | 4.3 | 0.0 | 0.00 | 0.00 | 0.00 | 75 | 1065.2 |
| 20260508192136 | 52 | 90 | 4.3 | 0.0 | 0.00 | 0.00 | 0.00 | 75 | 1065.2 |
| 20260508192016 | 52 | 45 | 6.1 | 0.0 | 0.00 | 0.00 | 0.00 | 74 | 1065.2 |
| 20260508191910 | 52 | 67 | 0.0 | 0.0 | 0.00 | 0.00 | 0.00 | 74 | 1065.2 |
| 20260508191757 | 52 | 67 | 5.2 | 0.0 | 0.00 | 0.00 | 0.00 | 73 | 1065.2 |
| 20260508191644 | 52 | 67 | 5.2 | 0.0 | 0.00 | 0.00 | 0.00 | 73 | 1065.2 |
| 20260508191531 | 52 | 112 | 0.0 | 0.0 | 0.00 | 0.00 | 0.00 | 73 | 1065.2 |
| 20260508191410 | 52 | 90 | 4.3 | 0.0 | 0.00 | 0.00 | 0.00 | 72 | 1065.2 |
| 20260508191248 | 52 | 90 | 0.0 | 0.0 | 0.00 | 0.00 | 0.00 | 72 | 1065.1 |
| 20260508191128 | 52 | 112 | 7.0 | 0.0 | 0.00 | 0.00 | 0.00 | 71 | 1065.2 |
| 20260508191024 | 53 | 67 | 4.3 | 0.0 | 0.00 | 0.00 | 0.00 | 71 | 1065.2 |
| 20260508190917 | 53 | 45 | 7.8 | 0.0 | 0.00 | 0.00 | 0.00 | 71 | 1065.2 |
| 20260508190810 | 53 | 67 | 0.0 | 0.0 | 0.00 | 0.00 | 0.00 | 71 | 1065.2 |
| 20260508190658 | 53 | 67 | 5.2 | 0.0 | 0.00 | 0.00 | 0.00 | 71 | 1065.1 |
| 20260508190544 | 53 | 90 | 7.8 | 0.0 | 0.00 | 0.00 | 0.00 | 71 | 1065.2 |
| 20260508190422 | 53 | 112 | 4.3 | 0.0 | 0.00 | 0.00 | 0.00 | 70 | 1065.1 |
| 20260508190301 | 53 | 67 | 0.0 | 0.0 | 0.00 | 0.00 | 0.00 | 70 | 1065.1 |
| 20260508190148 | 54 | 45 | 0.0 | 0.0 | 0.00 | 0.00 | 0.00 | 69 | 1065.2 |
| 20260508190034 | 54 | 67 | 5.2 | 0.0 | 0.00 | 0.00 | 0.00 | 69 | 1065.1 |
| 20260508185922 | 54 | 67 | 0.0 | 0.0 | 0.00 | 0.00 | 0.00 | 69 | 1065.1 |
| 20260508185817 | 54 | 67 | 0.0 | 0.0 | 0.00 | 0.00 | 0.00 | 68 | 1065.1 |
| 20260508185656 | 54 | 90 | 1.7 | 0.0 | 0.00 | 0.00 | 0.00 | 68 | 1065.0 |
| 20260508185543 | 55 | 67 | 1.7 | 0.0 | 0.00 | 0.00 | 0.00 | 68 | 1065.1 |
| 20260508185430 | 55 | 67 | 5.2 | 0.0 | 0.00 | 0.00 | 0.00 | 68 | 1065.1 |
| 20260508185323 | 55 | 67 | 6.1 | 0.0 | 0.00 | 0.00 | 0.00 | 68 | 1065.0 |
| 20260508185212 | 55 | 90 | 0.0 | 0.0 | 0.00 | 0.00 | 0.00 | 68 | 1065.0 |
| 20260508185050 | 55 | 67 | 4.3 | 0.0 | 0.00 | 0.00 | 0.00 | 67 | 1065.0 |
| 20260508184938 | 55 | 45 | 0.0 | 0.0 | 0.00 | 0.00 | 0.00 | 67 | 1065.0 |
| 20260508184832 | 55 | 90 | 0.0 | 0.0 | 0.00 | 0.00 | 0.00 | 67 | 1065.0 |
| 20260508184712 | 55 | 90 | 4.3 | 0.0 | 0.00 | 0.00 | 0.00 | 67 | 1065.0 |
| 20260508184600 | 55 | 112 | 4.3 | 0.0 | 0.00 | 0.00 | 0.00 | 67 | 1065.1 |
| 20260508184452 | 55 | 22 | 6.1 | 0.0 | 0.00 | 0.00 | 0.00 | 67 | 1065.0 |
| 20260508184338 | 56 | 112 | 5.2 | 0.0 | 0.00 | 0.00 | 0.00 | 66 | 1065.0 |
| 20260508184212 | 56 | 45 | 0.0 | 0.0 | 0.00 | 0.00 | 0.00 | 66 | 1065.1 |
| 20260508184108 | 56 | 45 | 7.0 | 0.0 | 0.00 | 0.00 | 0.00 | 66 | 1065.1 |
| 20260508184000 | 56 | 90 | 6.1 | 0.0 | 0.00 | 0.00 | 0.00 | 66 | 1065.0 |
| 20260508183846 | 56 | 67 | 4.3 | 0.0 | 0.00 | 0.00 | 0.00 | 65 | 1065.0 |
| 20260508183717 | 57 | 45 | 7.8 | 0.0 | 0.00 | 0.00 | 0.00 | 65 | 1064.9 |
| 20260508183607 | 57 | 90 | 2.6 | 0.0 | 0.00 | 0.00 | 0.00 | 65 | 1064.9 |
| 20260508183501 | 57 | 90 | 4.3 | 0.0 | 0.00 | 0.00 | 0.00 | 65 | 1064.9 |
| 20260508183355 | 57 | 112 | 8.7 | 0.0 | 0.00 | 0.00 | 0.00 | 65 | 1065.0 |
| 20260508183240 | 57 | 45 | 0.0 | 0.0 | 0.00 | 0.00 | 0.00 | 65 | 1065.0 |
| 20260508183120 | 57 | 67 | 0.0 | 0.0 | 0.00 | 0.00 | 0.00 | 65 | 1064.9 |
| 20260508182959 | 57 | 90 | 4.3 | 0.0 | 0.00 | 0.00 | 0.00 | 65 | 1064.9 |
| 20260508182840 | 57 | 67 | 0.0 | 0.0 | 0.00 | 0.00 | 0.00 | 65 | 1064.9 |
| 20260508182733 | 57 | 112 | 5.2 | 0.0 | 0.00 | 0.00 | 0.00 | 65 | 1065.0 |
| 20260508182620 | 57 | 90 | 6.1 | 0.0 | 0.00 | 0.00 | 0.00 | 65 | 1064.9 |
| 20260508182506 | 57 | 90 | 5.2 | 0.0 | 0.00 | 0.00 | 0.00 | 65 | 1064.8 |
| 20260508182353 | 57 | 45 | 1.7 | 0.0 | 0.00 | 0.00 | 0.00 | 64 | 1064.8 |
| 20260508182232 | 57 | 67 | 7.8 | 0.0 | 0.00 | 0.00 | 0.00 | 64 | 1064.8 |
| 20260508182110 | 57 | 90 | 3.5 | 0.0 | 0.00 | 0.00 | 0.00 | 64 | 1064.8 |
| 20260508181956 | 57 | 67 | 8.7 | 0.0 | 0.00 | 0.00 | 0.00 | 64 | 1064.7 |
| 20260508181842 | 57 | 45 | 3.5 | 0.0 | 0.00 | 0.00 | 0.00 | 64 | 1064.9 |
| 20260508181736 | 57 | 67 | 0.9 | 0.0 | 0.00 | 0.00 | 0.00 | 64 | 1064.8 |
| 20260508181623 | 57 | 67 | 7.0 | 0.0 | 0.00 | 0.00 | 0.00 | 64 | 1064.8 |
| 20260508181503 | 57 | 112 | 7.8 | 0.0 | 0.00 | 0.00 | 0.00 | 63 | 1064.8 |
| 20260508181350 | 57 | 90 | 7.8 | 0.0 | 0.00 | 0.00 | 0.00 | 63 | 1064.8 |
| 20260508181244 | 57 | 67 | 0.0 | 0.0 | 0.00 | 0.00 | 0.00 | 63 | 1064.8 |
| 20260508181133 | 57 | 22 | 9.6 | 0.0 | 0.00 | 0.00 | 0.00 | 63 | 1064.8 |
| 20260508181018 | 58 | 90 | 6.1 | 0.0 | 0.00 | 0.00 | 0.00 | 63 | 1064.8 |
| 20260508180905 | 58 | 67 | 7.8 | 0.0 | 0.00 | 0.00 | 0.00 | 63 | 1064.8 |
| 20260508180751 | 58 | 90 | 7.8 | 0.0 | 0.00 | 0.00 | 0.00 | 63 | 1064.9 |
| 20260508180623 | 58 | 45 | 8.7 | 0.0 | 0.00 | 0.00 | 0.00 | 63 | 1064.8 |
| 20260508180510 | 58 | 67 | 7.0 | 0.0 | 0.00 | 0.00 | 0.00 | 62 | 1064.9 |
| 20260508180404 | 58 | 90 | 3.5 | 0.0 | 0.00 | 0.00 | 0.00 | 62 | 1064.9 |
| 20260508180251 | 58 | 90 | 8.7 | 0.0 | 0.00 | 0.00 | 0.00 | 62 | 1064.9 |
| 20260508180130 | 58 | 112 | 3.5 | 0.0 | 0.00 | 0.00 | 0.00 | 62 | 1064.9 |
| 20260508180017 | 58 | 45 | 8.7 | 0.0 | 0.00 | 0.00 | 0.00 | 62 | 1064.8 |
| 20260508175855 | 58 | 22 | 7.8 | 0.0 | 0.00 | 0.00 | 0.00 | 61 | 1064.7 |
| 20260508175734 | 58 | 90 | 4.3 | 0.0 | 0.00 | 0.00 | 0.00 | 61 | 1064.7 |
| 20260508175605 | 58 | 90 | 4.3 | 0.0 | 0.00 | 0.00 | 0.00 | 61 | 1064.7 |
| 20260508175452 | 58 | 67 | 5.2 | 0.0 | 0.00 | 0.00 | 0.00 | 61 | 1064.7 |
| 20260508175346 | 58 | 90 | 7.0 | 0.0 | 0.00 | 0.00 | 0.00 | 61 | 1064.7 |
| 20260508175234 | 58 | 67 | 0.0 | 0.0 | 0.00 | 0.00 | 0.00 | 60 | 1064.7 |
| 20260508175113 | 58 | 22 | 5.2 | 0.0 | 0.00 | 0.00 | 0.00 | 60 | 1064.7 |
| 20260508175000 | 59 | 90 | 9.6 | 0.0 | 0.00 | 0.00 | 0.00 | 60 | 1064.7 |
| 20260508174847 | 58 | 67 | 9.6 | 0.0 | 0.00 | 0.00 | 0.00 | 60 | 1064.7 |
| 20260508174725 | 59 | 90 | 10.4 | 0.0 | 0.00 | 0.00 | 0.00 | 59 | 1064.6 |
| 20260508174612 | 59 | 67 | 5.2 | 0.0 | 0.00 | 0.00 | 0.00 | 59 | 1064.6 |
| 20260508174507 | 59 | 112 | 0.0 | 0.0 | 0.00 | 0.00 | 0.00 | 59 | 1064.6 |
| 20260508174356 | 59 | 112 | 8.7 | 0.0 | 0.00 | 0.00 | 0.00 | 58 | 1064.6 |
| 20260508174250 | 59 | 67 | 0.0 | 0.0 | 0.00 | 0.00 | 0.00 | 58 | 1064.7 |
| 20260508174136 | 59 | 90 | 7.0 | 0.0 | 0.00 | 0.00 | 0.00 | 58 | 1064.6 |
| 20260508174024 | 59 | 90 | 0.0 | 0.0 | 0.00 | 0.00 | 0.00 | 58 | 1064.7 |
| 20260508173912 | 59 | 90 | 10.4 | 0.0 | 0.00 | 0.00 | 0.00 | 58 | 1064.6 |
| 20260508173750 | 59 | 90 | 5.2 | 0.0 | 0.00 | 0.00 | 0.00 | 58 | 1064.7 |
| 20260508173632 | 59 | 67 | 5.2 | 0.0 | 0.00 | 0.00 | 0.00 | 58 | 1064.6 |
| 20260508173525 | 59 | 45 | 3.5 | 0.0 | 0.00 | 0.00 | 0.00 | 58 | 1064.7 |
| 20260508173348 | 59 | 90 | 0.0 | 0.0 | 0.00 | 0.00 | 0.00 | 57 | 1064.6 |
| 20260508173227 | 59 | 22 | 6.1 | 0.0 | 0.00 | 0.00 | 0.00 | 57 | 1064.7 |
| 20260508173116 | 59 | 45 | 5.2 | 0.0 | 0.00 | 0.00 | 0.00 | 57 | 1064.6 |
| 20260508173009 | 59 | 45 | 9.6 | 0.0 | 0.00 | 0.00 | 0.00 | 56 | 1064.6 |
| 20260508172856 | 59 | 90 | 6.1 | 0.0 | 0.00 | 0.00 | 0.00 | 56 | 1064.6 |
| 20260508172752 | 59 | 45 | 4.3 | 0.0 | 0.00 | 0.00 | 0.00 | 56 | 1064.6 |
| 20260508172646 | 59 | 90 | 3.5 | 0.0 | 0.00 | 0.00 | 0.00 | 56 | 1064.6 |
| 20260508172542 | 59 | 112 | 6.1 | 0.0 | 0.00 | 0.00 | 0.00 | 55 | 1064.6 |
| 20260508172436 | 60 | 90 | 13.0 | 0.0 | 0.00 | 0.00 | 0.00 | 55 | 1064.6 |
| 20260508172333 | 60 | 22 | 6.1 | 0.0 | 0.00 | 0.00 | 0.00 | 55 | 1064.6 |
| 20260508172226 | 60 | 45 | 4.3 | 0.0 | 0.00 | 0.00 | 0.00 | 55 | 1064.5 |
| 20260508172112 | 60 | 45 | 5.2 | 0.0 | 0.00 | 0.00 | 0.00 | 55 | 1064.5 |
| 20260508171959 | 60 | 45 | 7.0 | 0.0 | 0.00 | 0.00 | 0.00 | 55 | 1064.5 |
| 20260508171846 | 60 | 90 | 5.2 | 0.0 | 0.00 | 0.00 | 0.00 | 55 | 1064.5 |
| 20260508171733 | 60 | 22 | 6.1 | 0.0 | 0.00 | 0.00 | 0.00 | 55 | 1064.5 |
| 20260508171622 | 60 | 112 | 9.6 | 0.0 | 0.00 | 0.00 | 0.00 | 54 | 1064.5 |
| 20260508171514 | 60 | 67 | 1.7 | 0.0 | 0.00 | 0.00 | 0.00 | 54 | 1064.5 |
| 20260508171404 | 60 | 90 | 0.0 | 0.0 | 0.00 | 0.00 | 0.00 | 54 | 1064.5 |
| 20260508171257 | 60 | 45 | 0.0 | 0.0 | 0.00 | 0.00 | 0.00 | 54 | 1064.5 |
| 20260508171144 | 60 | 90 | 7.8 | 0.0 | 0.00 | 0.00 | 0.00 | 54 | 1064.4 |
| 20260508171031 | 61 | 45 | 6.1 | 0.0 | 0.00 | 0.00 | 0.00 | 53 | 1064.4 |
| 20260508170927 | 61 | 67 | 5.2 | 0.0 | 0.00 | 0.00 | 0.00 | 53 | 1064.4 |
| 20260508170820 | 61 | 67 | 5.2 | 0.0 | 0.00 | 0.00 | 0.00 | 53 | 1064.4 |
| 20260508170659 | 61 | 67 | 3.5 | 0.0 | 0.00 | 0.00 | 0.00 | 52 | 1064.4 |
| 20260508170539 | 61 | 112 | 5.2 | 0.0 | 0.00 | 0.00 | 0.00 | 52 | 1064.4 |
| 20260508170435 | 61 | 90 | 7.0 | 0.0 | 0.00 | 0.00 | 0.00 | 51 | 1064.4 |
| 20260508170328 | 61 | 90 | 5.2 | 0.0 | 0.00 | 0.00 | 0.00 | 51 | 1064.4 |
| 20260508170214 | 61 | 112 | 6.1 | 0.0 | 0.00 | 0.00 | 0.00 | 51 | 1064.4 |
| 20260508170103 | 61 | 67 | 9.6 | 0.0 | 0.00 | 0.00 | 0.00 | 51 | 1064.4 |
| 20260508165949 | 61 | 67 | 7.0 | 0.0 | 0.00 | 0.00 | 0.00 | 51 | 1064.4 |
| 20260508165819 | 62 | 90 | 5.2 | 0.0 | 0.00 | 0.00 | 0.00 | 50 | 1064.4 |
| 20260508165658 | 62 | 90 | 5.2 | 0.0 | 0.00 | 0.00 | 0.00 | 49 | 1064.3 |
| 20260508165536 | 62 | 112 | 7.8 | 0.0 | 0.00 | 0.00 | 0.00 | 49 | 1064.3 |
| 20260508165416 | 62 | 67 | 5.2 | 0.0 | 0.00 | 0.00 | 0.00 | 49 | 1064.3 |
| 20260508165255 | 61 | 45 | 3.5 | 0.0 | 0.00 | 0.00 | 0.00 | 49 | 1064.3 |
| 20260508165150 | 62 | 45 | 6.1 | 0.0 | 0.00 | 0.00 | 0.00 | 49 | 1064.3 |
| 20260508165044 | 62 | 22 | 6.1 | 0.0 | 0.00 | 0.00 | 0.00 | 50 | 1064.3 |
| 20260508164923 | 62 | 90 | 3.5 | 0.0 | 0.00 | 0.00 | 0.00 | 50 | 1064.3 |
| 20260508164810 | 62 | 67 | 6.1 | 0.0 | 0.00 | 0.00 | 0.00 | 50 | 1064.3 |
| 20260508164649 | 62 | 90 | 7.8 | 0.0 | 0.00 | 0.00 | 0.00 | 51 | 1064.3 |
| 20260508164536 | 62 | 45 | 6.1 | 0.0 | 0.00 | 0.00 | 0.00 | 51 | 1064.3 |
| 20260508164430 | 62 | 90 | 5.2 | 0.0 | 0.00 | 0.00 | 0.00 | 51 | 1064.3 |
| 20260508164317 | 62 | 90 | 7.0 | 0.0 | 0.00 | 0.00 | 0.00 | 51 | 1064.2 |
| 20260508164156 | 62 | 90 | 3.5 | 0.0 | 0.00 | 0.00 | 0.00 | 51 | 1064.3 |
| 20260508164043 | 62 | 112 | 11.3 | 0.0 | 0.00 | 0.00 | 0.00 | 51 | 1064.3 |
| 20260508163924 | 62 | 67 | 13.0 | 0.0 | 0.00 | 0.00 | 0.00 | 51 | 1064.2 |
| 20260508163809 | 62 | 45 | 5.2 | 0.0 | 0.00 | 0.00 | 0.00 | 51 | 1064.3 |
| 20260508163647 | 62 | 67 | 1.7 | 0.0 | 0.00 | 0.00 | 0.00 | 51 | 1064.3 |
| 20260508163527 | 62 | 135 | 7.8 | 0.0 | 0.00 | 0.00 | 0.00 | 50 | 1064.3 |
| 20260508163415 | 62 | 45 | 6.1 | 0.0 | 0.00 | 0.00 | 0.00 | 50 | 1064.3 |
| 20260508163254 | 62 | 67 | 5.2 | 0.0 | 0.00 | 0.00 | 0.00 | 49 | 1064.3 |
| 20260508163140 | 62 | 45 | 7.8 | 0.0 | 0.00 | 0.00 | 0.00 | 49 | 1064.3 |
| 20260508163028 | 62 | 45 | 10.4 | 0.0 | 0.00 | 0.00 | 0.00 | 50 | 1064.3 |
| 20260508162917 | 62 | 67 | 0.0 | 0.0 | 0.00 | 0.00 | 0.00 | 50 | 1064.3 |
| 20260508162809 | 62 | 112 | 8.7 | 0.0 | 0.00 | 0.00 | 0.00 | 49 | 1064.3 |
| 20260508162648 | 62 | 90 | 7.8 | 0.0 | 0.00 | 0.00 | 0.00 | 49 | 1064.4 |
| 20260508162535 | 63 | 90 | 9.6 | 0.0 | 0.00 | 0.00 | 0.00 | 49 | 1064.3 |
| 20260508162430 | 63 | 67 | 6.1 | 0.0 | 0.00 | 0.00 | 0.00 | 49 | 1064.4 |
| 20260508162309 | 63 | 112 | 13.0 | 0.0 | 0.00 | 0.00 | 0.00 | 49 | 1064.3 |
| 20260508162148 | 63 | 67 | 8.7 | 0.0 | 0.00 | 0.00 | 0.00 | 49 | 1064.4 |
| 20260508162034 | 63 | 45 | 7.0 | 0.0 | 0.00 | 0.00 | 0.00 | 48 | 1064.4 |
| 20260508161915 | 63 | 67 | 9.6 | 0.0 | 0.00 | 0.00 | 0.00 | 49 | 1064.3 |
| 20260508161808 | 63 | 90 | 7.8 | 0.0 | 0.00 | 0.00 | 0.00 | 49 | 1064.2 |
| 20260508161654 | 63 | 22 | 2.6 | 0.0 | 0.00 | 0.00 | 0.00 | 48 | 1064.3 |
| 20260508161535 | 63 | 67 | 6.1 | 0.0 | 0.00 | 0.00 | 0.00 | 47 | 1064.3 |
| 20260508161421 | 63 | 90 | 5.2 | 0.0 | 0.00 | 0.00 | 0.00 | 48 | 1064.2 |
| 20260508161308 | 63 | 112 | 8.7 | 0.0 | 0.00 | 0.00 | 0.00 | 49 | 1064.2 |
| 20260508161201 | 63 | 45 | 4.3 | 0.0 | 0.00 | 0.00 | 0.00 | 49 | 1064.2 |
| 20260508161041 | 63 | 45 | 4.3 | 0.0 | 0.00 | 0.00 | 0.00 | 48 | 1064.2 |
| 20260508160926 | 63 | 67 | 3.5 | 0.0 | 0.00 | 0.00 | 0.00 | 47 | 1064.2 |
| 20260508160814 | 63 | 112 | 11.3 | 0.0 | 0.00 | 0.00 | 0.00 | 47 | 1064.3 |
| 20260508160710 | 63 | 67 | 7.0 | 0.0 | 0.00 | 0.00 | 0.00 | 47 | 1064.2 |
| 20260508160603 | 63 | 45 | 5.2 | 0.0 | 0.00 | 0.00 | 0.00 | 46 | 1064.2 |
| 20260508160442 | 63 | 112 | 5.2 | 0.0 | 0.00 | 0.00 | 0.00 | 46 | 1064.2 |
| 20260508160329 | 63 | 45 | 7.8 | 0.0 | 0.00 | 0.00 | 0.00 | 45 | 1064.2 |
| 20260508160216 | 63 | 67 | 7.8 | 0.0 | 0.00 | 0.00 | 0.00 | 45 | 1064.2 |
| 20260508160054 | 63 | 45 | 4.3 | 0.0 | 0.00 | 0.00 | 0.00 | 45 | 1064.2 |
| 20260508155941 | 63 | 112 | 10.4 | 0.0 | 0.00 | 0.00 | 0.00 | 44 | 1064.2 |
| 20260508155828 | 63 | 67 | 4.3 | 0.0 | 0.00 | 0.00 | 0.00 | 44 | 1064.2 |
| 20260508155723 | 63 | 67 | 9.6 | 0.0 | 0.00 | 0.00 | 0.00 | 44 | 1064.2 |
| 20260508155612 | 63 | 45 | 4.3 | 0.0 | 0.00 | 0.00 | 0.00 | 44 | 1064.2 |
| 20260508155505 | 63 | 67 | 8.7 | 0.0 | 0.00 | 0.00 | 0.00 | 44 | 1064.2 |
| 20260508155352 | 63 | 90 | 15.6 | 0.0 | 0.00 | 0.00 | 0.00 | 44 | 1064.2 |
| 20260508155239 | 63 | 90 | 9.6 | 0.0 | 0.00 | 0.00 | 0.00 | 44 | 1064.2 |
| 20260508155126 | 63 | 90 | 6.1 | 0.0 | 0.00 | 0.00 | 0.00 | 44 | 1064.2 |
| 20260508155021 | 63 | 45 | 7.8 | 0.0 | 0.00 | 0.00 | 0.00 | 45 | 1064.2 |
| 20260508154859 | 63 | 67 | 13.9 | 0.0 | 0.00 | 0.00 | 0.00 | 49 | 1064.2 |
| 20260508154738 | 63 | 90 | 1.7 | 0.0 | 0.00 | 0.00 | 0.00 | 49 | 1064.2 |
| 20260508154625 | 63 | 90 | 4.3 | 0.0 | 0.00 | 0.00 | 0.00 | 49 | 1064.2 |
| 20260508154514 | 63 | 67 | 2.6 | 0.0 | 0.00 | 0.00 | 0.00 | 48 | 1064.2 |
| 20260508154359 | 63 | 45 | 12.2 | 0.0 | 0.00 | 0.00 | 0.00 | 48 | 1064.2 |
| 20260508154246 | 63 | 67 | 5.2 | 0.0 | 0.00 | 0.00 | 0.00 | 47 | 1064.3 |
| 20260508154141 | 64 | 22 | 14.8 | 0.0 | 0.00 | 0.00 | 0.00 | 48 | 1064.2 |
| 20260508154027 | 64 | 67 | 11.3 | 0.0 | 0.00 | 0.00 | 0.00 | 48 | 1064.2 |
| 20260508153908 | 64 | 45 | 10.4 | 0.0 | 0.00 | 0.00 | 0.00 | 46 | 1064.2 |
| 20260508153801 | 64 | 112 | 7.0 | 0.0 | 0.00 | 0.00 | 0.00 | 47 | 1064.2 |
| 20260508153648 | 64 | 90 | 10.4 | 0.0 | 0.00 | 0.00 | 0.00 | 47 | 1064.3 |
| 20260508153543 | 64 | 90 | 12.2 | 0.0 | 0.00 | 0.00 | 0.00 | 47 | 1064.2 |
| 20260508153421 | 64 | 90 | 7.0 | 0.0 | 0.00 | 0.00 | 0.00 | 48 | 1064.1 |
| 20260508153301 | 64 | 22 | 12.2 | 0.0 | 0.00 | 0.00 | 0.00 | 47 | 1064.1 |
| 20260508153155 | 64 | 45 | 9.6 | 0.0 | 0.00 | 0.00 | 0.00 | 47 | 1064.2 |
| 20260508153034 | 64 | 22 | 7.0 | 0.0 | 0.00 | 0.00 | 0.00 | 47 | 1064.1 |
| 20260508152913 | 64 | 45 | 7.0 | 0.0 | 0.00 | 0.00 | 0.00 | 46 | 1064.2 |
| 20260508152744 | 64 | 45 | 0.0 | 0.0 | 0.00 | 0.00 | 0.00 | 45 | 1064.2 |
| 20260508152631 | 64 | 67 | 8.7 | 0.0 | 0.00 | 0.00 | 0.00 | 43 | 1064.3 |
| 20260508152518 | 64 | 45 | 7.0 | 0.0 | 0.00 | 0.00 | 0.00 | 44 | 1064.3 |
| 20260508152405 | 64 | 67 | 9.6 | 0.0 | 0.00 | 0.00 | 0.00 | 45 | 1064.3 |
| 20260508152301 | 65 | 90 | 4.3 | 0.0 | 0.00 | 0.00 | 0.00 | 45 | 1064.2 |
| 20260508152147 | 65 | 90 | 2.6 | 0.0 | 0.00 | 0.00 | 0.00 | 45 | 1064.2 |
| 20260508152026 | 65 | 90 | 12.2 | 0.0 | 0.00 | 0.00 | 0.00 | 45 | 1064.3 |
| 20260508151921 | 65 | 67 | 10.4 | 0.0 | 0.00 | 0.00 | 0.00 | 45 | 1064.2 |
| 20260508151759 | 65 | 22 | 6.1 | 0.0 | 0.00 | 0.00 | 0.00 | 45 | 1064.2 |
| 20260508151647 | 65 | 67 | 4.3 | 0.0 | 0.00 | 0.00 | 0.00 | 45 | 1064.2 |
| 20260508151534 | 65 | 45 | 0.0 | 0.0 | 0.00 | 0.00 | 0.00 | 44 | 1064.2 |
| 20260508151414 | 65 | 90 | 5.2 | 0.0 | 0.00 | 0.00 | 0.00 | 45 | 1064.2 |
| 20260508151307 | 65 | 67 | 11.3 | 0.0 | 0.00 | 0.00 | 0.00 | 45 | 1064.2 |
| 20260508151157 | 65 | 90 | 7.0 | 0.0 | 0.00 | 0.00 | 0.00 | 45 | 1064.1 |
| 20260508151049 | 65 | 112 | 7.0 | 0.0 | 0.00 | 0.00 | 0.00 | 44 | 1064.2 |
| 20260508150929 | 65 | 45 | 13.9 | 0.0 | 0.00 | 0.00 | 0.00 | 44 | 1064.2 |
| 20260508150815 | 65 | 90 | 5.2 | 0.0 | 0.00 | 0.00 | 0.00 | 45 | 1064.2 |
| 20260508150702 | 65 | 22 | 9.6 | 0.0 | 0.00 | 0.00 | 0.00 | 45 | 1064.2 |
| 20260508150557 | 65 | 45 | 15.6 | 0.0 | 0.00 | 0.00 | 0.00 | 46 | 1064.1 |
| 20260508150435 | 65 | 45 | 10.4 | 0.0 | 0.00 | 0.00 | 0.00 | 46 | 1064.2 |
| 20260508150314 | 65 | 0 | 7.8 | 0.0 | 0.00 | 0.00 | 0.00 | 46 | 1064.2 |
| 20260508150201 | 65 | 45 | 5.2 | 0.0 | 0.00 | 0.00 | 0.00 | 45 | 1064.2 |
| 20260508150040 | 65 | 45 | 5.2 | 0.0 | 0.00 | 0.00 | 0.00 | 46 | 1064.2 |
| 20260508145927 | 65 | 45 | 0.0 | 0.0 | 0.00 | 0.00 | 0.00 | 45 | 1064.2 |
| 20260508145813 | 65 | 45 | 10.4 | 0.0 | 0.00 | 0.00 | 0.00 | 44 | 1064.3 |
| 20260508145700 | 65 | 90 | 7.0 | 0.0 | 0.00 | 0.00 | 0.00 | 44 | 1064.2 |
| 20260508145539 | 65 | 0 | 6.1 | 0.0 | 0.00 | 0.00 | 0.00 | 44 | 1064.2 |
| 20260508145426 | 65 | 67 | 7.8 | 0.0 | 0.00 | 0.00 | 0.00 | 43 | 1064.2 |
| 20260508145313 | 65 | 67 | 7.0 | 0.0 | 0.00 | 0.00 | 0.00 | 42 | 1064.2 |
| 20260508145202 | 65 | 67 | 8.7 | 0.0 | 0.00 | 0.00 | 0.00 | 42 | 1064.3 |
| 20260508145056 | 65 | 45 | 5.2 | 0.0 | 0.00 | 0.00 | 0.00 | 44 | 1064.2 |
| 20260508144950 | 65 | 67 | 6.1 | 0.0 | 0.00 | 0.00 | 0.00 | 45 | 1064.3 |
| 20260508144836 | 65 | 45 | 4.3 | 0.0 | 0.00 | 0.00 | 0.00 | 46 | 1064.2 |
| 20260508144716 | 64 | 90 | 11.3 | 0.0 | 0.00 | 0.00 | 0.00 | 46 | 1064.2 |
| 20260508144610 | 64 | 22 | 7.0 | 0.0 | 0.00 | 0.00 | 0.00 | 47 | 1064.2 |
| 20260508144457 | 64 | 0 | 6.1 | 0.0 | 0.00 | 0.00 | 0.00 | 46 | 1064.3 |
| 20260508144343 | 64 | 67 | 6.1 | 0.0 | 0.00 | 0.00 | 0.00 | 46 | 1064.3 |
| 20260508144225 | 65 | 90 | 11.3 | 0.0 | 0.00 | 0.00 | 0.00 | 46 | 1064.2 |
| 20260508144118 | 65 | 22 | 11.3 | 0.0 | 0.00 | 0.00 | 0.00 | 45 | 1064.2 |
| 20260508143956 | 65 | 45 | 6.1 | 0.0 | 0.00 | 0.00 | 0.00 | 45 | 1064.2 |
| 20260508143835 | 65 | 45 | 13.0 | 0.0 | 0.00 | 0.00 | 0.00 | 45 | 1064.2 |
| 20260508143715 | 65 | 90 | 10.4 | 0.0 | 0.00 | 0.00 | 0.00 | 45 | 1064.2 |
| 20260508143609 | 65 | 67 | 8.7 | 0.0 | 0.00 | 0.00 | 0.00 | 45 | 1064.3 |
| 20260508143504 | 65 | 22 | 0.0 | 0.0 | 0.00 | 0.00 | 0.00 | 44 | 1064.3 |
| 20260508143351 | 65 | 67 | 12.2 | 0.0 | 0.00 | 0.00 | 0.00 | 44 | 1064.4 |
| 20260508143230 | 66 | 45 | 14.8 | 0.0 | 0.00 | 0.00 | 0.00 | 44 | 1064.5 |
| 20260508143117 | 65 | 67 | 7.8 | 0.0 | 0.00 | 0.00 | 0.00 | 43 | 1064.4 |
| 20260508143013 | 65 | 112 | 7.0 | 0.0 | 0.00 | 0.00 | 0.00 | 42 | 1064.4 |
| 20260508142858 | 65 | 45 | 4.3 | 0.0 | 0.00 | 0.00 | 0.00 | 42 | 1064.4 |
| 20260508142746 | 65 | 90 | 14.8 | 0.0 | 0.00 | 0.00 | 0.00 | 45 | 1064.4 |
| 20260508142640 | 65 | 22 | 7.0 | 0.0 | 0.00 | 0.00 | 0.00 | 46 | 1064.4 |
| 20260508142519 | 65 | 67 | 12.2 | 0.0 | 0.00 | 0.00 | 0.00 | 45 | 1064.3 |
| 20260508142359 | 65 | 22 | 6.1 | 0.0 | 0.00 | 0.00 | 0.00 | 45 | 1064.4 |
| 20260508142253 | 65 | 337 | 3.5 | 0.0 | 0.00 | 0.00 | 0.00 | 44 | 1064.5 |
| 20260508142131 | 65 | 0 | 7.8 | 0.0 | 0.00 | 0.00 | 0.00 | 44 | 1064.6 |
| 20260508142012 | 65 | 45 | 3.5 | 0.0 | 0.00 | 0.00 | 0.00 | 44 | 1064.4 |
| 20260508141907 | 65 | 112 | 13.0 | 0.0 | 0.00 | 0.00 | 0.00 | 44 | 1064.5 |
| 20260508141755 | 65 | 0 | 11.3 | 0.0 | 0.00 | 0.00 | 0.00 | 44 | 1064.6 |
| 20260508141647 | 65 | 22 | 15.6 | 0.0 | 0.00 | 0.00 | 0.00 | 45 | 1064.5 |
| 20260508141534 | 65 | 90 | 7.0 | 0.0 | 0.00 | 0.00 | 0.00 | 44 | 1064.6 |
| 20260508141423 | 65 | 45 | 7.8 | 0.0 | 0.00 | 0.00 | 0.00 | 44 | 1064.6 |
| 20260508141310 | 65 | 112 | 10.4 | 0.0 | 0.00 | 0.00 | 0.00 | 44 | 1064.5 |
| 20260508141155 | 64 | 0 | 4.3 | 0.0 | 0.00 | 0.00 | 0.00 | 46 | 1064.5 |
| 20260508141042 | 64 | 67 | 5.2 | 0.0 | 0.00 | 0.00 | 0.00 | 47 | 1064.6 |
| 20260508140929 | 64 | 45 | 5.2 | 0.0 | 0.00 | 0.00 | 0.00 | 48 | 1064.5 |
| 20260508140825 | 64 | 45 | 7.0 | 0.0 | 0.00 | 0.00 | 0.00 | 48 | 1064.5 |
| 20260508140719 | 63 | 22 | 7.8 | 0.0 | 0.00 | 0.00 | 0.00 | 47 | 1064.6 |
| 20260508140559 | 63 | 0 | 7.8 | 0.0 | 0.00 | 0.00 | 0.00 | 47 | 1064.6 |
| 20260508140453 | 63 | 45 | 8.7 | 0.0 | 0.00 | 0.00 | 0.00 | 46 | 1064.7 |
| 20260508140339 | 63 | 67 | 11.3 | 0.0 | 0.00 | 0.00 | 0.00 | 46 | 1064.7 |
| 20260508140218 | 62 | 0 | 1.7 | 0.0 | 0.00 | 0.00 | 0.00 | 47 | 1064.7 |
| 20260508140105 | 62 | 0 | 10.4 | 0.0 | 0.00 | 0.00 | 0.00 | 47 | 1064.7 |
| 20260508135952 | 62 | 45 | 7.0 | 0.0 | 0.00 | 0.00 | 0.00 | 47 | 1064.8 |
| 20260508135847 | 62 | 45 | 9.6 | 0.0 | 0.00 | 0.00 | 0.00 | 48 | 1064.8 |
| 20260508135729 | 62 | 45 | 10.4 | 0.0 | 0.00 | 0.00 | 0.00 | 48 | 1064.7 |
| 20260508135624 | 62 | 45 | 9.6 | 0.0 | 0.00 | 0.00 | 0.00 | 48 | 1064.7 |
| 20260508135507 | 61 | 67 | 4.3 | 0.0 | 0.00 | 0.00 | 0.00 | 47 | 1064.8 |
| 20260508135354 | 61 | 90 | 3.5 | 0.0 | 0.00 | 0.00 | 0.00 | 46 | 1064.8 |
| 20260508135233 | 61 | 45 | 13.9 | 0.0 | 0.00 | 0.00 | 0.00 | 46 | 1064.8 |
| 20260508135112 | 61 | 22 | 10.4 | 0.0 | 0.00 | 0.00 | 0.00 | 47 | 1064.8 |
| 20260508135008 | 61 | 45 | 20.0 | 0.0 | 0.00 | 0.00 | 0.00 | 50 | 1064.8 |
| 20260508134901 | 61 | 45 | 7.8 | 0.0 | 0.00 | 0.00 | 0.00 | 50 | 1064.7 |
| 20260508134741 | 61 | 112 | 5.2 | 0.0 | 0.00 | 0.00 | 0.00 | 51 | 1064.8 |
| 20260508134635 | 61 | 45 | 9.6 | 0.0 | 0.00 | 0.00 | 0.00 | 50 | 1064.7 |
| 20260508134521 | 61 | 90 | 11.3 | 0.0 | 0.00 | 0.00 | 0.00 | 49 | 1064.8 |
| 20260508134408 | 61 | 45 | 7.0 | 0.0 | 0.00 | 0.00 | 0.00 | 50 | 1064.8 |
| 20260508134255 | 61 | 45 | 7.8 | 0.0 | 0.00 | 0.00 | 0.00 | 49 | 1064.8 |
| 20260508134142 | 61 | 22 | 7.0 | 0.0 | 0.00 | 0.00 | 0.00 | 50 | 1064.7 |
| 20260508134029 | 61 | 45 | 14.8 | 0.0 | 0.00 | 0.00 | 0.00 | 49 | 1064.7 |
| 20260508133916 | 61 | 22 | 4.3 | 0.0 | 0.00 | 0.00 | 0.00 | 49 | 1064.8 |
| 20260508133810 | 61 | 67 | 13.0 | 0.0 | 0.00 | 0.00 | 0.00 | 50 | 1064.8 |
| 20260508133650 | 61 | 45 | 0.0 | 0.0 | 0.00 | 0.00 | 0.00 | 50 | 1064.7 |
| 20260508133536 | 61 | 90 | 12.2 | 0.0 | 0.00 | 0.00 | 0.00 | 50 | 1064.8 |
| 20260508133426 | 61 | 67 | 11.3 | 0.0 | 0.00 | 0.00 | 0.00 | 50 | 1064.8 |
| 20260508133319 | 61 | 67 | 7.0 | 0.0 | 0.00 | 0.00 | 0.00 | 49 | 1064.8 |
| 20260508133214 | 61 | 45 | 6.1 | 0.0 | 0.00 | 0.00 | 0.00 | 49 | 1064.7 |
| 20260508133107 | 61 | 0 | 9.6 | 0.0 | 0.00 | 0.00 | 0.00 | 50 | 1064.7 |
| 20260508133002 | 61 | 45 | 0.0 | 0.0 | 0.00 | 0.00 | 0.00 | 49 | 1064.7 |
| 20260508132857 | 61 | 45 | 10.4 | 0.0 | 0.00 | 0.00 | 0.00 | 49 | 1064.7 |
| 20260508132744 | 61 | 45 | 7.8 | 0.0 | 0.00 | 0.00 | 0.00 | 50 | 1064.7 |
| 20260508132639 | 61 | 67 | 16.5 | 0.0 | 0.00 | 0.00 | 0.00 | 50 | 1064.7 |
| 20260508132525 | 61 | 90 | 6.1 | 0.0 | 0.00 | 0.00 | 0.00 | 51 | 1064.8 |
| 20260508132413 | 61 | 90 | 6.1 | 0.0 | 0.00 | 0.00 | 0.00 | 50 | 1064.8 |
| 20260508132300 | 61 | 0 | 8.7 | 0.0 | 0.00 | 0.00 | 0.00 | 51 | 1064.8 |
| 20260508132154 | 61 | 45 | 8.7 | 0.0 | 0.00 | 0.00 | 0.00 | 52 | 1064.8 |
| 20260508132042 | 61 | 67 | 0.0 | 0.0 | 0.00 | 0.00 | 0.00 | 52 | 1064.8 |
| 20260508131936 | 61 | 90 | 3.5 | 0.0 | 0.00 | 0.00 | 0.00 | 51 | 1064.8 |
| 20260508131815 | 61 | 45 | 12.2 | 0.0 | 0.00 | 0.00 | 0.00 | 51 | 1064.8 |
| 20260508131653 | 61 | 112 | 10.4 | 0.0 | 0.00 | 0.00 | 0.00 | 51 | 1064.8 |
| 20260508131541 | 61 | 112 | 9.6 | 0.0 | 0.00 | 0.00 | 0.00 | 51 | 1064.8 |
| 20260508131428 | 61 | 90 | 13.9 | 0.0 | 0.00 | 0.00 | 0.00 | 52 | 1064.9 |
| 20260508131314 | 61 | 45 | 6.1 | 0.0 | 0.00 | 0.00 | 0.00 | 51 | 1064.8 |
| 20260508131209 | 61 | 67 | 4.3 | 0.0 | 0.00 | 0.00 | 0.00 | 51 | 1064.8 |
| 20260508131040 | 61 | 45 | 13.0 | 0.0 | 0.00 | 0.00 | 0.00 | 52 | 1064.9 |
| 20260508130927 | 61 | 90 | 14.8 | 0.0 | 0.00 | 0.00 | 0.00 | 52 | 1064.9 |
| 20260508130822 | 61 | 45 | 7.0 | 0.0 | 0.00 | 0.00 | 0.00 | 52 | 1064.9 |
| 20260508130700 | 61 | 45 | 6.1 | 0.0 | 0.00 | 0.00 | 0.00 | 51 | 1064.8 |
| 20260508130548 | 61 | 22 | 10.4 | 0.0 | 0.00 | 0.00 | 0.00 | 50 | 1064.8 |
| 20260508130435 | 61 | 45 | 5.2 | 0.0 | 0.00 | 0.00 | 0.00 | 50 | 1064.9 |
| 20260508130330 | 61 | 90 | 14.8 | 0.0 | 0.00 | 0.00 | 0.00 | 51 | 1064.9 |
| 20260508130224 | 61 | 0 | 7.8 | 0.0 | 0.00 | 0.00 | 0.00 | 51 | 1064.9 |
| 20260508130113 | 61 | 45 | 0.0 | 0.0 | 0.00 | 0.00 | 0.00 | 51 | 1064.9 |
| 20260508130008 | 61 | 45 | 7.8 | 0.0 | 0.00 | 0.00 | 0.00 | 50 | 1064.9 |
| 20260508125901 | 61 | 22 | 11.3 | 0.0 | 0.00 | 0.00 | 0.00 | 51 | 1064.9 |
| 20260508125748 | 61 | 45 | 9.6 | 0.0 | 0.00 | 0.00 | 0.00 | 52 | 1064.8 |
| 20260508125627 | 61 | 45 | 3.5 | 0.0 | 0.00 | 0.00 | 0.00 | 52 | 1064.9 |
| 20260508125522 | 61 | 67 | 4.3 | 0.0 | 0.00 | 0.00 | 0.00 | 52 | 1064.9 |
| 20260508125409 | 61 | 67 | 0.0 | 0.0 | 0.00 | 0.00 | 0.00 | 51 | 1064.9 |
| 20260508125306 | 62 | 67 | 9.6 | 0.0 | 0.00 | 0.00 | 0.00 | 51 | 1065.0 |
| 20260508125153 | 62 | 90 | 5.2 | 0.0 | 0.00 | 0.00 | 0.00 | 51 | 1064.9 |
| 20260508125047 | 62 | 22 | 6.1 | 0.0 | 0.00 | 0.00 | 0.00 | 51 | 1064.9 |
| 20260508124940 | 62 | 67 | 7.0 | 0.0 | 0.00 | 0.00 | 0.00 | 50 | 1064.9 |
| 20260508124820 | 62 | 112 | 9.6 | 0.0 | 0.00 | 0.00 | 0.00 | 49 | 1064.9 |
| 20260508124714 | 62 | 67 | 10.4 | 0.0 | 0.00 | 0.00 | 0.00 | 49 | 1064.9 |
| 20260508124601 | 62 | 45 | 10.4 | 0.0 | 0.00 | 0.00 | 0.00 | 48 | 1065.0 |
| 20260508124448 | 62 | 112 | 7.8 | 0.0 | 0.00 | 0.00 | 0.00 | 48 | 1065.1 |
| 20260508124337 | 62 | 90 | 10.4 | 0.0 | 0.00 | 0.00 | 0.00 | 48 | 1065.1 |
| 20260508124231 | 63 | 45 | 5.2 | 0.0 | 0.00 | 0.00 | 0.00 | 47 | 1065.1 |
| 20260508124117 | 63 | 135 | 9.6 | 0.0 | 0.00 | 0.00 | 0.00 | 48 | 1065.1 |
| 20260508124011 | 63 | 112 | 0.0 | 0.0 | 0.00 | 0.00 | 0.00 | 48 | 1065.1 |
| 20260508123851 | 63 | 90 | 12.2 | 0.0 | 0.00 | 0.00 | 0.00 | 47 | 1065.1 |
| 20260508123738 | 64 | 135 | 6.1 | 0.0 | 0.00 | 0.00 | 0.00 | 46 | 1065.2 |
| 20260508123631 | 64 | 135 | 9.6 | 0.0 | 0.00 | 0.00 | 0.00 | 43 | 1065.1 |
| 20260508123520 | 64 | 135 | 6.1 | 0.0 | 0.00 | 0.00 | 0.00 | 43 | 1065.1 |
| 20260508123357 | 64 | 135 | 9.6 | 0.0 | 0.00 | 0.00 | 0.00 | 45 | 1064.9 |
| 20260508123245 | 65 | 22 | 7.8 | 0.0 | 0.00 | 0.00 | 0.00 | 43 | 1064.9 |
| 20260508123132 | 65 | 45 | 0.0 | 0.0 | 0.00 | 0.00 | 0.00 | 42 | 1065.0 |
| 20260508123019 | 65 | 90 | 0.0 | 0.0 | 0.00 | 0.00 | 0.00 | 40 | 1065.1 |
| 20260508122914 | 65 | 112 | 0.0 | 0.0 | 0.00 | 0.00 | 0.00 | 38 | 1065.1 |
| 20260508122801 | 65 | 90 | 8.7 | 0.0 | 0.00 | 0.00 | 0.00 | 37 | 1065.0 |
| 20260508122649 | 65 | 112 | 3.5 | 0.0 | 0.00 | 0.00 | 0.00 | 38 | 1065.0 |
| 20260508122538 | 66 | 112 | 4.3 | 0.0 | 0.00 | 0.00 | 0.00 | 40 | 1065.1 |
| 20260508122422 | 66 | 112 | 0.0 | 0.0 | 0.00 | 0.00 | 0.00 | 42 | 1065.0 |
| 20260508122317 | 66 | 90 | 0.0 | 0.0 | 0.00 | 0.00 | 0.00 | 41 | 1065.1 |
| 20260508122205 | 66 | 112 | 7.0 | 0.0 | 0.00 | 0.00 | 0.00 | 37 | 1065.2 |
| 20260508122051 | 66 | 112 | 10.4 | 0.0 | 0.00 | 0.00 | 0.00 | 35 | 1065.1 |
| 20260508121946 | 66 | 112 | 3.5 | 0.0 | 0.00 | 0.00 | 0.00 | 34 | 1065.1 |
| 20260508121833 | 67 | 135 | 8.7 | 0.0 | 0.00 | 0.00 | 0.00 | 34 | 1064.9 |
| 20260508121728 | 67 | 112 | 10.4 | 0.0 | 0.00 | 0.00 | 0.00 | 33 | 1065.0 |
| 20260508121622 | 67 | 67 | 7.8 | 0.0 | 0.00 | 0.00 | 0.00 | 33 | 1065.0 |
| 20260508121501 | 67 | 45 | 3.5 | 0.0 | 0.00 | 0.00 | 0.00 | 34 | 1065.0 |
| 20260508121341 | 67 | 22 | 5.2 | 0.0 | 0.00 | 0.00 | 0.00 | 33 | 1065.0 |
| 20260508121227 | 67 | 45 | 6.1 | 0.0 | 0.00 | 0.00 | 0.00 | 33 | 1065.0 |
| 20260508121115 | 68 | 112 | 11.3 | 0.0 | 0.00 | 0.00 | 0.00 | 33 | 1065.1 |
| 20260508121002 | 68 | 90 | 4.3 | 0.0 | 0.00 | 0.00 | 0.00 | 33 | 1065.1 |
| 20260508120848 | 68 | 112 | 9.6 | 0.0 | 0.00 | 0.00 | 0.00 | 33 | 1065.1 |
| 20260508120728 | 68 | 45 | 6.1 | 0.0 | 0.00 | 0.00 | 0.00 | 34 | 1065.1 |
| 20260508120625 | 68 | 112 | 0.9 | 0.0 | 0.00 | 0.00 | 0.00 | 33 | 1065.1 |
| 20260508120517 | 68 | 112 | 5.2 | 0.0 | 0.00 | 0.00 | 0.00 | 32 | 1065.1 |
| 20260508120355 | 68 | 135 | 9.6 | 0.0 | 0.00 | 0.00 | 0.00 | 33 | 1065.1 |
| 20260508120236 | 178 | 112 | 6.1 | 0.0 | 0.00 | 0.00 | 0.00 | 11 | 1065.1 |
| 20260508120130 | 178 | 112 | 11.3 | 0.0 | 0.00 | 0.00 | 0.00 | 11 | 1065.1 |
| 20260508120011 | 68 | 112 | 5.2 | 0.0 | 0.00 | 0.00 | 0.00 | 32 | 1065.1 |
| 20260508115905 | 68 | 135 | 7.0 | 0.0 | 0.00 | 0.00 | 0.00 | 33 | 1065.1 |
| 20260508115744 | 68 | 135 | 6.1 | 0.0 | 0.00 | 0.00 | 0.00 | 33 | 1065.1 |
| 20260508115621 | 68 | 135 | 3.5 | 0.0 | 0.00 | 0.00 | 0.00 | 34 | 1065.1 |
| 20260508115501 | 68 | 90 | 0.0 | 0.0 | 0.00 | 0.00 | 0.00 | 34 | 1065.1 |
| 20260508115349 | 68 | 135 | 9.6 | 0.0 | 0.00 | 0.00 | 0.00 | 33 | 1065.1 |
| 20260508115236 | 67 | 135 | 11.3 | 0.0 | 0.00 | 0.00 | 0.00 | 34 | 1065.1 |
| 20260508115125 | 67 | 157 | 7.8 | 0.0 | 0.00 | 0.00 | 0.00 | 35 | 1065.0 |
| 20260508115019 | 67 | 112 | 0.0 | 0.0 | 0.00 | 0.00 | 0.00 | 35 | 1065.0 |
| 20260508114907 | 67 | 45 | 0.0 | 0.0 | 0.00 | 0.00 | 0.00 | 34 | 1065.1 |
| 20260508114800 | 67 | 90 | 0.0 | 0.0 | 0.00 | 0.00 | 0.00 | 35 | 1065.1 |
| 20260508114637 | 67 | 112 | 0.0 | 0.0 | 0.00 | 0.00 | 0.00 | 34 | 1065.1 |
| 20260508114517 | 67 | 157 | 11.3 | 0.0 | 0.00 | 0.00 | 0.00 | 33 | 1065.2 |
| 20260508114403 | 68 | 157 | 12.2 | 0.0 | 0.00 | 0.00 | 0.00 | 33 | 1065.1 |
| 20260508114251 | 68 | 112 | 6.1 | 0.0 | 0.00 | 0.00 | 0.00 | 33 | 1065.1 |
| 20260508114146 | 68 | 135 | 7.8 | 0.0 | 0.00 | 0.00 | 0.00 | 33 | 1065.2 |
| 20260508114026 | 68 | 90 | 7.8 | 0.0 | 0.00 | 0.00 | 0.00 | 33 | 1065.1 |
| 20260508113853 | 68 | 135 | 5.2 | 0.0 | 0.00 | 0.00 | 0.00 | 34 | 1065.0 |
| 20260508113730 | 68 | 22 | 0.0 | 0.0 | 0.00 | 0.00 | 0.00 | 34 | 1065.1 |
| 20260508113616 | 68 | 135 | 9.6 | 0.0 | 0.00 | 0.00 | 0.00 | 34 | 1065.2 |
| 20260508113444 | 68 | 157 | 0.0 | 0.0 | 0.00 | 0.00 | 0.00 | 34 | 1065.2 |
| 20260508113315 | 68 | 135 | 0.0 | 0.0 | 0.00 | 0.00 | 0.00 | 33 | 1065.3 |
| 20260508113156 | 68 | 67 | 7.0 | 0.0 | 0.00 | 0.00 | 0.00 | 34 | 1065.4 |
| 20260508113051 | 68 | 112 | 5.2 | 0.0 | 0.00 | 0.00 | 0.00 | 34 | 1065.3 |
| 20260508112945 | 68 | 112 | 5.2 | 0.0 | 0.00 | 0.00 | 0.00 | 34 | 1065.2 |
| 20260508112817 | 68 | 135 | 6.1 | 0.0 | 0.00 | 0.00 | 0.00 | 33 | 1065.2 |
| 20260508112712 | 68 | 112 | 4.3 | 0.0 | 0.00 | 0.00 | 0.00 | 34 | 1065.3 |
| 20260508112551 | 67 | 157 | 6.1 | 0.0 | 0.00 | 0.00 | 0.00 | 35 | 1065.3 |
| 20260508112430 | 67 | 112 | 1.7 | 0.0 | 0.00 | 0.00 | 0.00 | 34 | 1065.3 |
| 20260508112325 | 67 | 135 | 3.5 | 0.0 | 0.00 | 0.00 | 0.00 | 35 | 1065.3 |
| 20260508112212 | 67 | 67 | 3.5 | 0.0 | 0.00 | 0.00 | 0.00 | 35 | 1065.3 |
| 20260508112100 | 67 | 135 | 5.2 | 0.0 | 0.00 | 0.00 | 0.00 | 35 | 1065.3 |
| 20260508111954 | 67 | 45 | 5.2 | 0.0 | 0.00 | 0.00 | 0.00 | 34 | 1065.4 |
| 20260508111832 | 66 | 90 | 5.2 | 0.0 | 0.00 | 0.00 | 0.00 | 35 | 1065.5 |
| 20260508111703 | 67 | 67 | 5.2 | 0.0 | 0.00 | 0.00 | 0.00 | 33 | 1065.4 |
| 20260508111549 | 67 | 67 | 6.1 | 0.0 | 0.00 | 0.00 | 0.00 | 34 | 1065.4 |
| 20260508111420 | 67 | 90 | 7.0 | 0.0 | 0.00 | 0.00 | 0.00 | 34 | 1065.5 |
| 20260508111301 | 67 | 112 | 8.7 | 0.0 | 0.00 | 0.00 | 0.00 | 34 | 1065.4 |
| 20260508111153 | 66 | 112 | 7.8 | 0.0 | 0.00 | 0.00 | 0.00 | 34 | 1065.4 |
| 20260508111033 | 67 | 135 | 5.2 | 0.0 | 0.00 | 0.00 | 0.00 | 33 | 1065.4 |
| 20260508110918 | 67 | 112 | 10.4 | 0.0 | 0.00 | 0.00 | 0.00 | 34 | 1065.4 |
| 20260508110749 | 67 | 112 | 5.2 | 0.0 | 0.00 | 0.00 | 0.00 | 33 | 1065.3 |
| 20260508110620 | 67 | 90 | 13.0 | 0.0 | 0.00 | 0.00 | 0.00 | 35 | 1065.3 |
| 20260508110451 | 67 | 90 | 6.1 | 0.0 | 0.00 | 0.00 | 0.00 | 35 | 1065.4 |
| 20260508110332 | 67 | 135 | 5.2 | 0.0 | 0.00 | 0.00 | 0.00 | 34 | 1065.4 |
| 20260508110227 | 67 | 90 | 6.1 | 0.0 | 0.00 | 0.00 | 0.00 | 34 | 1065.4 |
| 20260508110120 | 67 | 90 | 12.2 | 0.0 | 0.00 | 0.00 | 0.00 | 34 | 1065.4 |
| 20260508110007 | 67 | 135 | 6.1 | 0.0 | 0.00 | 0.00 | 0.00 | 33 | 1065.4 |
| 20260508105853 | 67 | 90 | 14.8 | 0.0 | 0.00 | 0.00 | 0.00 | 34 | 1065.4 |
| 20260508105734 | 67 | 45 | 5.2 | 0.0 | 0.00 | 0.00 | 0.00 | 35 | 1065.4 |
| 20260508105619 | 67 | 112 | 11.3 | 0.0 | 0.00 | 0.00 | 0.00 | 35 | 1065.4 |
| 20260508105450 | 66 | 135 | 7.8 | 0.0 | 0.00 | 0.00 | 0.00 | 36 | 1065.3 |
| 20260508105336 | 66 | 22 | 0.0 | 0.0 | 0.00 | 0.00 | 0.00 | 35 | 1065.3 |
| 20260508105218 | 66 | 112 | 6.1 | 0.0 | 0.00 | 0.00 | 0.00 | 34 | 1065.3 |
| 20260508105110 | 66 | 135 | 6.1 | 0.0 | 0.00 | 0.00 | 0.00 | 35 | 1065.3 |
| 20260508104949 | 66 | 135 | 11.3 | 0.0 | 0.00 | 0.00 | 0.00 | 35 | 1065.3 |
| 20260508104820 | 66 | 135 | 4.3 | 0.0 | 0.00 | 0.00 | 0.00 | 34 | 1065.4 |
| 20260508104707 | 66 | 135 | 5.2 | 0.0 | 0.00 | 0.00 | 0.00 | 35 | 1065.4 |
| 20260508104539 | 66 | 135 | 5.2 | 0.0 | 0.00 | 0.00 | 0.00 | 35 | 1065.4 |
| 20260508104424 | 66 | 135 | 7.0 | 0.0 | 0.00 | 0.00 | 0.00 | 34 | 1065.3 |
| 20260508104314 | 66 | 90 | 12.2 | 0.0 | 0.00 | 0.00 | 0.00 | 34 | 1065.3 |
| 20260508104207 | 66 | 135 | 7.8 | 0.0 | 0.00 | 0.00 | 0.00 | 34 | 1065.4 |
| 20260508104054 | 67 | 157 | 6.1 | 0.0 | 0.00 | 0.00 | 0.00 | 33 | 1065.3 |
| 20260508103933 | 67 | 135 | 8.7 | 0.0 | 0.00 | 0.00 | 0.00 | 35 | 1065.4 |
| 20260508103827 | 66 | 135 | 5.2 | 0.0 | 0.00 | 0.00 | 0.00 | 34 | 1065.3 |
| 20260508103700 | 67 | 112 | 0.0 | 0.0 | 0.00 | 0.00 | 0.00 | 33 | 1065.4 |
| 20260508103555 | 67 | 112 | 8.7 | 0.0 | 0.00 | 0.00 | 0.00 | 34 | 1065.3 |
| 20260508103448 | 67 | 112 | 0.0 | 0.0 | 0.00 | 0.00 | 0.00 | 35 | 1065.3 |
| 20260508103328 | 67 | 135 | 4.3 | 0.0 | 0.00 | 0.00 | 0.00 | 34 | 1065.3 |
| 20260508103214 | 67 | 135 | 7.8 | 0.0 | 0.00 | 0.00 | 0.00 | 35 | 1065.3 |
| 20260508103111 | 67 | 112 | 5.2 | 0.0 | 0.00 | 0.00 | 0.00 | 34 | 1065.3 |
| 20260508103005 | 67 | 90 | 9.6 | 0.0 | 0.00 | 0.00 | 0.00 | 34 | 1065.3 |
| 20260508102850 | 67 | 112 | 8.7 | 0.0 | 0.00 | 0.00 | 0.00 | 34 | 1065.3 |
| 20260508102737 | 66 | 135 | 7.0 | 0.0 | 0.00 | 0.00 | 0.00 | 34 | 1065.3 |
| 20260508102625 | 66 | 45 | 5.2 | 0.0 | 0.00 | 0.00 | 0.00 | 35 | 1065.4 |
| 20260508102518 | 66 | 135 | 13.0 | 0.0 | 0.00 | 0.00 | 0.00 | 34 | 1065.3 |
| 20260508102406 | 66 | 67 | 5.2 | 0.0 | 0.00 | 0.00 | 0.00 | 34 | 1065.3 |
| 20260508102253 | 66 | 135 | 7.0 | 0.0 | 0.00 | 0.00 | 0.00 | 35 | 1065.3 |
| 20260508102140 | 66 | 135 | 6.1 | 0.0 | 0.00 | 0.00 | 0.00 | 35 | 1065.4 |
| 20260508102035 | 66 | 45 | 5.2 | 0.0 | 0.00 | 0.00 | 0.00 | 35 | 1065.3 |
| 20260508101921 | 66 | 135 | 5.2 | 0.0 | 0.00 | 0.00 | 0.00 | 35 | 1065.4 |
| 20260508101801 | 66 | 112 | 7.8 | 0.0 | 0.00 | 0.00 | 0.00 | 36 | 1065.4 |
| 20260508101649 | 66 | 135 | 8.7 | 0.0 | 0.00 | 0.00 | 0.00 | 35 | 1065.3 |
| 20260508101533 | 66 | 180 | 9.6 | 0.0 | 0.00 | 0.00 | 0.00 | 35 | 1065.4 |
| 20260508101413 | 66 | 135 | 7.8 | 0.0 | 0.00 | 0.00 | 0.00 | 36 | 1065.4 |
| 20260508101259 | 66 | 90 | 4.3 | 0.0 | 0.00 | 0.00 | 0.00 | 36 | 1065.4 |
| 20260508101131 | 66 | 157 | 7.8 | 0.0 | 0.00 | 0.00 | 0.00 | 36 | 1065.4 |
| 20260508101019 | 66 | 112 | 7.8 | 0.0 | 0.00 | 0.00 | 0.00 | 35 | 1065.4 |
| 20260508100915 | 66 | 90 | 7.0 | 0.0 | 0.00 | 0.00 | 0.00 | 35 | 1065.4 |
| 20260508100755 | 66 | 112 | 3.5 | 0.0 | 0.00 | 0.00 | 0.00 | 35 | 1065.5 |
| 20260508100650 | 66 | 90 | 6.1 | 0.0 | 0.00 | 0.00 | 0.00 | 35 | 1065.4 |
| 20260508100538 | 65 | 135 | 9.6 | 0.0 | 0.00 | 0.00 | 0.00 | 35 | 1065.4 |
| 20260508100430 | 66 | 112 | 7.0 | 0.0 | 0.00 | 0.00 | 0.00 | 34 | 1065.4 |
| 20260508100318 | 66 | 157 | 10.4 | 0.0 | 0.00 | 0.00 | 0.00 | 34 | 1065.4 |
| 20260508100205 | 66 | 112 | 5.2 | 0.0 | 0.00 | 0.00 | 0.00 | 34 | 1065.4 |
| 20260508100054 | 66 | 135 | 11.3 | 0.0 | 0.00 | 0.00 | 0.00 | 35 | 1065.5 |
| 20260508095939 | 66 | 135 | 13.0 | 0.0 | 0.00 | 0.00 | 0.00 | 35 | 1065.4 |
| 20260508095826 | 66 | 135 | 10.4 | 0.0 | 0.00 | 0.00 | 0.00 | 36 | 1065.3 |
| 20260508095722 | 66 | 112 | 4.3 | 0.0 | 0.00 | 0.00 | 0.00 | 36 | 1065.4 |
| 20260508095617 | 66 | 135 | 5.2 | 0.0 | 0.00 | 0.00 | 0.00 | 36 | 1065.4 |